EW4437 Weather Reports


time (UTC)temp
C
wind
direction
speed
KPH
gust
KPH
rain 1hr
cm
rain 24hr
cm
rain mn
cm
humidity
%
barometer
mb
20260905224606 35 282 1.6 8.0 0.00 0.03 0.03 51 1009.4
20260905224505 35 283 1.6 8.0 0.00 0.03 0.03 51 1009.4
20260905224405 35 281 1.6 4.8 0.00 0.03 0.03 51 1009.4
20260905224305 35 281 1.6 4.8 0.00 0.03 0.03 51 1009.4
20260905224204 35 280 1.6 4.8 0.00 0.03 0.03 51 1009.4
20260905224105 35 280 1.6 4.8 0.00 0.03 0.03 51 1009.4
20260905224005 35 279 1.6 4.8 0.00 0.03 0.03 52 1009.4
20260905223904 35 280 1.6 4.8 0.00 0.03 0.03 53 1009.4
20260905223805 35 280 1.6 4.8 0.00 0.03 0.03 52 1009.4
20260905223705 35 281 1.6 4.8 0.00 0.03 0.03 52 1009.4
20260905223605 35 283 1.6 6.4 0.00 0.03 0.03 52 1009.4
20260905223505 35 286 1.6 6.4 0.00 0.03 0.03 51 1009.4
20260905223405 35 287 1.6 6.4 0.00 0.03 0.03 51 1009.4
20260905223326 35 287 1.6 6.4 0.00 0.03 0.03 51 1009.4
20260905223204 35 287 1.6 6.4 0.00 0.03 0.03 51 1009.4
20260905223127 35 289 1.6 6.4 0.00 0.03 0.03 51 1009.4
20260905223004 35 286 1.6 6.4 0.00 0.03 0.03 52 1009.4
20260905222926 35 286 1.6 6.4 0.00 0.03 0.03 51 1009.4
20260905222805 35 286 1.6 6.4 0.00 0.03 0.03 50 1009.4
20260905222705 35 286 1.6 6.4 0.00 0.03 0.03 51 1009.4
20260905222604 35 287 1.6 4.8 0.00 0.03 0.03 52 1009.4
20260905222525 35 287 1.6 4.8 0.00 0.03 0.03 52 1009.4
20260905222405 35 287 1.6 4.8 0.00 0.03 0.03 51 1009.4
20260905222307 35 287 0.0 4.8 0.00 0.03 0.03 51 1009.4
20260905222206 35 286 0.0 4.8 0.00 0.03 0.03 50 1009.4
20260905222104 35 286 0.0 4.8 0.00 0.03 0.03 50 1009.4
20260905222026 35 292 0.0 4.8 0.00 0.03 0.03 50 1009.4
20260905221904 35 293 0.0 3.2 0.00 0.03 0.03 50 1009.4
20260905221806 35 291 0.0 4.8 0.00 0.03 0.03 51 1009.4
20260905221704 35 289 1.6 4.8 0.00 0.03 0.03 51 1009.4
20260905221604 35 287 1.6 6.4 0.00 0.03 0.03 50 1009.4
20260905221505 35 285 1.6 6.4 0.00 0.03 0.03 50 1009.4
20260905221404 35 285 1.6 6.4 0.00 0.03 0.03 50 1009.4
20260905221304 35 285 1.6 6.4 0.00 0.03 0.03 50 1009.4
20260905221225 35 285 1.6 6.4 0.00 0.03 0.03 51 1009.4
20260905221105 35 285 1.6 6.4 0.00 0.03 0.03 51 1009.4
20260905221004 35 285 1.6 6.4 0.00 0.03 0.03 49 1009.4
20260905220925 35 285 1.6 6.4 0.00 0.03 0.03 49 1009.4
20260905220827 35 286 1.6 6.4 0.00 0.03 0.03 49 1009.4
20260905220704 36 288 1.6 6.4 0.00 0.03 0.03 48 1009.4
20260905220605 36 288 1.6 4.8 0.00 0.03 0.03 48 1009.4
20260905220505 36 287 1.6 4.8 0.00 0.03 0.03 48 1009.4
20260905220406 36 284 1.6 6.4 0.00 0.03 0.03 50 1009.4
20260905220325 36 285 1.6 6.4 0.00 0.03 0.03 50 1009.4
20260905220206 36 287 1.6 6.4 0.00 0.03 0.03 50 1009.4
20260905220104 36 286 1.6 6.4 0.00 0.03 0.03 50 1009.4
20260905220027 36 285 1.6 6.4 0.00 0.03 0.03 50 1009.4
20260905215905 36 285 1.6 6.4 0.00 0.03 0.03 49 1009.6
20260905215804 36 284 1.6 6.4 0.00 0.03 0.03 50 1009.6
20260905215704 36 288 1.6 6.4 0.00 0.03 0.03 50 1009.6
20260905215627 36 287 1.6 6.4 0.00 0.03 0.03 50 1009.6
20260905215506 36 292 0.0 6.4 0.00 0.03 0.03 49 1009.6
20260905215404 36 336 0.0 3.2 0.00 0.03 0.03 49 1009.6
20260905215306 36 351 0.0 1.6 0.00 0.03 0.03 51 1009.6
20260905215206 36 337 0.0 3.2 0.00 0.03 0.03 51 1009.6
20260905215104 35 334 0.0 3.2 0.00 0.03 0.03 52 1009.6
20260905215004 35 333 0.0 3.2 0.00 0.03 0.03 50 1009.6
20260905214906 35 331 0.0 3.2 0.00 0.03 0.03 49 1009.6
20260905214804 35 331 1.6 4.8 0.00 0.03 0.03 50 1009.6
20260905214705 35 321 1.6 4.8 0.00 0.03 0.03 49 1009.6
20260905214626 35 321 1.6 4.8 0.00 0.03 0.03 49 1009.6
20260905214504 35 325 1.6 4.8 0.00 0.03 0.03 49 1009.6
20260905214405 35 325 1.6 4.8 0.00 0.03 0.03 49 1009.5
20260905214304 35 325 1.6 4.8 0.00 0.03 0.03 48 1009.5
20260905214205 36 324 1.6 4.8 0.00 0.03 0.03 49 1009.5
20260905214126 36 327 1.6 4.8 0.00 0.03 0.03 50 1009.5
20260905214005 35 344 1.6 4.8 0.00 0.03 0.03 51 1009.5
20260905213904 35 349 1.6 4.8 0.00 0.03 0.03 50 1009.5
20260905213804 35 353 1.6 4.8 0.00 0.03 0.03 49 1009.5
20260905213727 35 2 1.6 4.8 0.00 0.03 0.03 50 1009.5
20260905213604 35 34 1.6 4.8 0.00 0.03 0.03 49 1009.5
20260905213505 35 47 1.6 4.8 0.00 0.03 0.03 51 1009.5
20260905213405 35 47 1.6 4.8 0.00 0.03 0.03 51 1009.5
20260905213326 35 47 1.6 4.8 0.00 0.03 0.03 51 1009.5
20260905213204 35 54 0.0 4.8 0.00 0.03 0.03 49 1009.5
20260905213104 35 51 0.0 4.8 0.00 0.03 0.03 49 1009.5
20260905213005 35 49 0.0 3.2 0.00 0.03 0.03 50 1009.5
20260905212925 35 46 0.0 3.2 0.00 0.03 0.03 49 1009.5
20260905212804 35 31 0.0 3.2 0.00 0.03 0.03 49 1009.5
20260905212725 35 13 0.0 3.2 0.00 0.03 0.03 49 1009.5
20260905212605 35 325 0.0 6.4 0.00 0.03 0.03 48 1009.5
20260905212527 35 301 1.6 6.4 0.00 0.03 0.03 51 1009.5
20260905212405 35 284 1.6 6.4 0.00 0.03 0.03 49 1009.5
20260905212306 35 288 1.6 6.4 0.00 0.03 0.03 50 1009.5
20260905212204 35 286 1.6 6.4 0.00 0.03 0.03 49 1009.5
20260905212105 35 286 1.6 6.4 0.00 0.03 0.03 48 1009.5
20260905212004 35 290 1.6 6.4 0.00 0.03 0.03 48 1009.5
20260905211904 35 286 1.6 6.4 0.00 0.03 0.03 49 1009.5
20260905211804 35 287 1.6 6.4 0.00 0.03 0.03 48 1009.5
20260905211705 35 296 1.6 6.4 0.00 0.03 0.03 49 1009.5
20260905211604 35 297 1.6 6.4 0.00 0.03 0.03 49 1009.5
20260905211526 35 301 1.6 6.4 0.00 0.03 0.03 49 1009.5
20260905211425 35 309 1.6 4.8 0.00 0.03 0.03 49 1009.5
20260905211306 35 312 1.6 4.8 0.00 0.03 0.03 49 1009.8
20260905211205 35 314 1.6 4.8 0.00 0.03 0.03 49 1009.8
20260905211104 35 314 1.6 4.8 0.00 0.03 0.03 47 1009.8
20260905211004 35 313 1.6 4.8 0.00 0.03 0.03 49 1009.8
20260905210905 35 332 1.6 4.8 0.00 0.03 0.03 50 1009.8
20260905210805 35 355 1.6 4.8 0.00 0.03 0.03 49 1009.8
20260905210705 35 337 1.6 4.8 0.00 0.03 0.03 49 1009.8
20260905210604 35 359 1.6 8.0 0.00 0.03 0.03 50 1009.8
20260905210505 35 8 1.6 8.0 0.00 0.03 0.03 50 1009.8
20260905210404 35 10 1.6 8.0 0.00 0.03 0.03 48 1009.8
20260905210305 35 10 1.6 8.0 0.00 0.03 0.03 48 1009.8
20260905210206 35 18 1.6 8.0 0.00 0.03 0.03 48 1009.8
20260905210104 35 18 1.6 8.0 0.00 0.03 0.03 48 1009.8
20260905210006 35 4 1.6 8.0 0.00 0.03 0.03 48 1009.8
20260905205904 35 337 3.2 8.0 0.00 0.03 0.03 47 1009.9
20260905205804 35 318 3.2 8.0 0.00 0.03 0.03 47 1009.9
20260905205725 35 318 3.2 8.0 0.00 0.03 0.03 47 1009.9
20260905205606 36 301 3.2 9.7 0.00 0.03 0.03 49 1009.9
20260905205506 36 298 3.2 9.7 0.00 0.03 0.03 49 1009.9
20260905205425 36 294 3.2 9.7 0.00 0.03 0.03 48 1009.9
20260905205306 35 290 3.2 9.7 0.00 0.03 0.03 49 1009.9
20260905205205 35 289 3.2 9.7 0.00 0.03 0.03 49 1009.9
20260905205104 35 291 3.2 9.7 0.00 0.03 0.03 49 1009.9
20260905205027 35 292 3.2 9.7 0.00 0.03 0.03 50 1009.9
20260905204925 35 295 3.2 9.7 0.00 0.03 0.03 49 1009.9
20260905204825 35 300 3.2 9.7 0.00 0.03 0.03 48 1009.9
20260905204704 36 305 3.2 9.7 0.00 0.03 0.03 48 1009.9
20260905204604 36 322 3.2 11.3 0.00 0.03 0.03 50 1009.9
20260905204504 36 336 1.6 11.3 0.00 0.03 0.03 47 1009.9
20260905204404 36 354 1.6 11.3 0.00 0.03 0.03 47 1010.0
20260905204305 36 22 1.6 11.3 0.00 0.03 0.03 49 1010.0
20260905204205 36 29 1.6 11.3 0.00 0.03 0.03 48 1010.0
20260905204125 35 30 1.6 11.3 0.00 0.03 0.03 50 1010.0
20260905204004 35 37 1.6 11.3 0.00 0.03 0.03 50 1010.0
20260905203904 35 37 1.6 11.3 0.00 0.03 0.03 48 1010.0
20260905203804 35 32 1.6 11.3 0.00 0.03 0.03 49 1010.0
20260905203705 36 22 1.6 11.3 0.00 0.03 0.03 49 1010.0
20260905203605 36 337 1.6 4.8 0.00 0.03 0.03 48 1010.0
20260905203504 36 315 1.6 4.8 0.00 0.03 0.03 48 1010.0
20260905203406 36 301 1.6 9.7 0.00 0.03 0.03 48 1010.0
20260905203304 36 297 1.6 9.7 0.00 0.03 0.03 48 1010.0
20260905203205 36 295 1.6 9.7 0.00 0.03 0.03 50 1010.0
20260905203104 36 295 3.2 9.7 0.00 0.03 0.03 49 1010.0
20260905203004 36 300 3.2 9.7 0.00 0.03 0.03 47 1010.0
20260905202904 36 309 3.2 9.7 0.00 0.03 0.03 48 1010.2
20260905202805 36 312 3.2 9.7 0.00 0.03 0.03 49 1010.2
20260905202726 36 314 3.2 9.7 0.00 0.03 0.03 50 1010.2
20260905202626 36 317 3.2 9.7 0.00 0.03 0.03 50 1010.2
20260905202505 36 322 3.2 9.7 0.00 0.03 0.03 48 1010.2
20260905202404 36 340 1.6 4.8 0.00 0.03 0.03 49 1010.2
20260905202306 36 344 1.6 4.8 0.00 0.03 0.03 49 1010.2
20260905202205 36 343 1.6 4.8 0.00 0.03 0.03 48 1010.2
20260905202105 35 340 1.6 6.4 0.00 0.03 0.03 49 1010.2
20260905202004 36 327 3.2 6.4 0.00 0.03 0.03 49 1010.2
20260905201904 36 323 1.6 6.4 0.00 0.03 0.03 48 1010.2
20260905201806 36 325 1.6 6.4 0.00 0.03 0.03 48 1010.2
20260905201705 36 324 1.6 6.4 0.00 0.03 0.03 48 1010.2
20260905201605 36 323 1.6 6.4 0.00 0.03 0.03 48 1010.2
20260905201505 35 318 1.6 6.4 0.00 0.03 0.03 51 1010.2
20260905201404 35 316 1.6 6.4 0.00 0.03 0.03 49 1010.4
20260905201304 35 309 1.6 6.4 0.00 0.03 0.03 50 1010.4
20260905201205 35 305 1.6 6.4 0.00 0.03 0.03 48 1010.4
20260905201104 35 298 1.6 6.4 0.00 0.03 0.03 49 1010.4
20260905201026 35 297 1.6 6.4 0.00 0.03 0.03 49 1010.4
20260905200905 35 290 1.6 4.8 0.00 0.03 0.03 48 1010.4
20260905200805 35 290 1.6 4.8 0.00 0.03 0.03 48 1010.4
20260905200705 35 285 1.6 8.0 0.00 0.03 0.03 49 1010.4
20260905200604 35 282 1.6 8.0 0.00 0.03 0.03 50 1010.4
20260905200506 35 282 1.6 8.0 0.00 0.03 0.03 51 1010.4
20260905200404 35 285 1.6 8.0 0.00 0.03 0.03 50 1010.4
20260905200305 35 295 1.6 8.0 0.00 0.03 0.03 49 1010.4
20260905200204 35 316 1.6 8.0 0.00 0.03 0.03 48 1010.4
20260905200105 35 339 1.6 8.0 0.00 0.03 0.03 51 1010.4
20260905200006 35 340 3.2 8.0 0.00 0.03 0.03 49 1010.4
20260905195905 35 343 1.6 8.0 0.00 0.03 0.03 48 1010.5
20260905195804 35 347 1.6 8.0 0.00 0.03 0.03 47 1010.5
20260905195704 35 8 1.6 8.0 0.00 0.03 0.03 49 1010.5
20260905195605 35 28 1.6 6.4 0.00 0.03 0.03 50 1010.5
20260905195506 35 27 1.6 6.4 0.00 0.03 0.03 50 1010.5
20260905195425 35 22 1.6 6.4 0.00 0.03 0.03 47 1010.5
20260905195306 35 19 1.6 6.4 0.00 0.03 0.03 50 1010.5
20260905195225 35 19 1.6 4.8 0.00 0.03 0.03 50 1010.5
20260905195126 35 25 1.6 6.4 0.00 0.03 0.03 49 1010.5
20260905195004 35 30 1.6 6.4 0.00 0.03 0.03 49 1010.5
20260905194905 35 25 1.6 6.4 0.00 0.03 0.03 48 1010.5
20260905194804 35 12 1.6 6.4 0.00 0.03 0.03 48 1010.5
20260905194706 35 6 1.6 6.4 0.00 0.03 0.03 49 1010.5
20260905194605 35 3 1.6 6.4 0.00 0.03 0.03 49 1010.5
20260905194526 35 7 1.6 6.4 0.00 0.03 0.03 49 1010.5
20260905194404 35 15 1.6 6.4 0.00 0.03 0.03 49 1010.9
20260905194304 35 358 1.6 6.4 0.00 0.03 0.03 49 1010.9
20260905194204 36 320 1.6 6.4 0.00 0.03 0.03 49 1010.9
20260905194104 36 285 1.6 4.8 0.00 0.03 0.03 47 1010.9
20260905194026 36 280 1.6 4.8 0.00 0.03 0.03 47 1010.9
20260905193905 36 274 1.6 4.8 0.00 0.03 0.03 48 1010.9
20260905193804 36 268 1.6 3.2 0.00 0.03 0.03 48 1010.9
20260905193705 36 279 1.6 4.8 0.00 0.03 0.03 51 1010.9
20260905193625 36 278 1.6 4.8 0.00 0.03 0.03 51 1010.9
20260905193506 35 284 1.6 4.8 0.00 0.03 0.03 48 1010.9
20260905193405 35 281 1.6 4.8 0.00 0.03 0.03 48 1010.9
20260905193326 35 279 1.6 4.8 0.00 0.03 0.03 48 1010.9
20260905193204 35 284 1.6 4.8 0.00 0.03 0.03 51 1010.9
20260905193104 35 288 1.6 4.8 0.00 0.03 0.03 50 1010.9
20260905193004 35 300 1.6 4.8 0.00 0.03 0.03 49 1010.9
20260905192904 35 301 1.6 4.8 0.00 0.03 0.03 49 1010.9
20260905192804 35 316 1.6 4.8 0.00 0.03 0.03 49 1010.9
20260905192704 35 328 1.6 3.2 0.00 0.03 0.03 48 1010.9
20260905192604 35 328 0.0 3.2 0.00 0.03 0.03 48 1010.9
20260905192504 35 330 0.0 3.2 0.00 0.03 0.03 47 1010.9
20260905192404 35 40 1.6 4.8 0.00 0.03 0.03 47 1010.9
20260905192306 35 50 1.6 4.8 0.00 0.03 0.03 48 1010.9
20260905192204 35 56 1.6 4.8 0.00 0.03 0.03 49 1010.9
20260905192105 35 57 1.6 4.8 0.00 0.03 0.03 52 1010.9
20260905192025 35 61 1.6 4.8 0.00 0.03 0.03 51 1010.9
20260905191905 35 65 1.6 4.8 0.00 0.03 0.03 50 1010.9
20260905191825 35 68 1.6 4.8 0.00 0.03 0.03 50 1010.9
20260905191705 35 69 1.6 4.8 0.00 0.03 0.03 49 1010.9
20260905191605 35 70 1.6 4.8 0.00 0.03 0.03 49 1010.9
20260905191505 35 83 1.6 4.8 0.00 0.03 0.03 48 1010.9
20260905191405 35 95 1.6 4.8 0.00 0.03 0.03 50 1011.1
20260905191304 35 113 0.0 4.8 0.00 0.03 0.03 49 1011.1
20260905191205 35 142 0.0 3.2 0.00 0.03 0.03 50 1011.1
20260905191105 35 145 0.0 3.2 0.00 0.03 0.03 50 1011.1
20260905191004 35 129 0.0 3.2 0.00 0.03 0.03 51 1011.1
20260905190905 35 113 0.0 3.2 0.00 0.03 0.03 49 1011.1
20260905190804 35 100 1.6 3.2 0.00 0.03 0.03 50 1011.1
20260905190725 35 96 1.6 3.2 0.00 0.03 0.03 51 1011.1
20260905190604 35 90 1.6 3.2 0.00 0.03 0.03 49 1011.1
20260905190526 35 83 1.6 3.2 0.00 0.03 0.03 52 1011.1
20260905190404 35 72 1.6 3.2 0.00 0.03 0.03 51 1011.1
20260905190326 34 67 1.6 3.2 0.00 0.03 0.03 51 1011.1
20260905190225 35 58 1.6 4.8 0.00 0.03 0.03 50 1011.1
20260905190104 35 55 1.6 4.8 0.00 0.03 0.03 51 1011.1
20260905190004 35 55 1.6 8.0 0.00 0.03 0.03 51 1011.1
20260905185904 35 54 1.6 8.0 0.00 0.03 0.03 52 1011.4
20260905185805 34 53 1.6 9.7 0.00 0.03 0.03 51 1011.4
20260905185725 34 52 1.6 9.7 0.00 0.03 0.03 52 1011.4
20260905185626 34 52 3.2 9.7 0.00 0.03 0.03 52 1011.4
20260905185504 34 52 3.2 9.7 0.00 0.03 0.03 51 1011.4
20260905185406 34 52 3.2 9.7 0.00 0.03 0.03 53 1011.4
20260905185306 34 54 1.6 9.7 0.00 0.03 0.03 52 1011.4
20260905185205 34 53 1.6 9.7 0.00 0.03 0.03 51 1011.4
20260905185104 34 52 1.6 9.7 0.00 0.03 0.03 50 1011.4
20260905185004 35 50 1.6 9.7 0.00 0.03 0.03 49 1011.4
20260905184904 35 48 1.6 9.7 0.00 0.03 0.03 49 1011.4
20260905184805 35 42 1.6 9.7 0.00 0.03 0.03 51 1011.4
20260905184704 35 40 1.6 4.8 0.00 0.03 0.03 51 1011.4
20260905184604 35 56 1.6 6.4 0.00 0.03 0.03 51 1011.4
20260905184504 35 58 1.6 6.4 0.00 0.03 0.03 53 1011.4
20260905184404 35 58 1.6 6.4 0.00 0.03 0.03 50 1011.5
20260905184304 35 58 1.6 6.4 0.00 0.03 0.03 50 1011.5
20260905184204 35 58 1.6 6.4 0.00 0.03 0.03 50 1011.5
20260905184104 34 58 1.6 6.4 0.00 0.03 0.03 51 1011.5
20260905184004 34 58 1.6 6.4 0.00 0.03 0.03 51 1011.5
20260905183905 34 59 1.6 6.4 0.00 0.03 0.03 50 1011.5
20260905183805 34 52 1.6 6.4 0.00 0.03 0.03 49 1011.5
20260905183704 35 44 0.0 6.4 0.00 0.03 0.03 51 1011.5
20260905183604 35 10 0.0 3.2 0.00 0.03 0.03 50 1011.5
20260905183504 35 290 0.0 3.2 0.00 0.03 0.03 49 1011.5
20260905183404 35 270 0.0 3.2 0.00 0.03 0.03 51 1011.5
20260905183304 35 263 0.0 3.2 0.00 0.03 0.03 49 1011.5
20260905183206 35 260 0.0 3.2 0.00 0.03 0.03 51 1011.5
20260905183104 35 246 1.6 3.2 0.00 0.03 0.03 52 1011.5
20260905183005 35 221 1.6 3.2 0.00 0.03 0.03 50 1011.5
20260905182925 35 222 1.6 3.2 0.00 0.03 0.03 49 1011.5
20260905182804 35 199 0.0 3.2 0.00 0.03 0.03 48 1011.6
20260905182725 35 196 0.0 3.2 0.00 0.03 0.03 48 1011.6
20260905182604 35 194 0.0 3.2 0.00 0.03 0.03 48 1011.6
20260905182505 35 159 0.0 3.2 0.00 0.03 0.03 50 1011.6
20260905182406 35 158 0.0 3.2 0.00 0.03 0.03 51 1011.6
20260905182306 35 151 1.6 6.4 0.00 0.03 0.03 52 1011.6
20260905182205 35 156 1.6 6.4 0.00 0.03 0.03 50 1011.6
20260905182104 35 158 0.0 6.4 0.00 0.03 0.03 51 1011.6
20260905182005 35 165 0.0 6.4 0.00 0.03 0.03 50 1011.6
20260905181925 35 165 0.0 6.4 0.00 0.03 0.03 50 1011.6
20260905181805 35 164 0.0 6.4 0.00 0.03 0.03 48 1011.6
20260905181704 35 141 1.6 6.4 0.00 0.03 0.03 51 1011.6
20260905181604 35 133 1.6 6.4 0.00 0.03 0.03 48 1011.6
20260905181505 34 172 1.6 6.4 0.00 0.03 0.03 51 1011.6
20260905181405 34 242 1.6 6.4 0.00 0.03 0.03 52 1011.8
20260905181304 34 282 1.6 4.8 0.00 0.03 0.03 52 1011.8
20260905181204 34 280 1.6 4.8 0.00 0.03 0.03 51 1011.8
20260905181125 34 278 1.6 4.8 0.00 0.03 0.03 51 1011.8
20260905181005 34 255 1.6 4.8 0.00 0.03 0.03 53 1011.8
20260905180925 34 252 1.6 4.8 0.00 0.03 0.03 51 1011.8
20260905180804 34 234 1.6 6.4 0.00 0.03 0.03 49 1011.8
20260905180706 34 215 1.6 6.4 0.00 0.03 0.03 50 1011.8
20260905180605 34 200 1.6 6.4 0.00 0.03 0.03 51 1011.8
20260905180504 34 172 1.6 6.4 0.00 0.03 0.03 51 1011.8
20260905180404 34 155 1.6 6.4 0.00 0.03 0.03 51 1011.8
20260905180305 34 165 1.6 6.4 0.00 0.03 0.03 51 1011.8
20260905180225 34 167 1.6 8.0 0.00 0.03 0.03 51 1011.8
20260905180104 33 177 1.6 8.0 0.00 0.03 0.03 55 1011.8
20260905180004 33 201 1.6 8.0 0.00 0.03 0.03 55 1011.8
20260905175905 33 241 3.2 8.0 0.00 0.03 0.03 52 1012.0
20260905175804 33 258 1.6 8.0 0.00 0.03 0.03 54 1012.0
20260905175704 33 267 1.6 8.0 0.00 0.03 0.03 53 1012.0
20260905175625 33 267 1.6 8.0 0.00 0.03 0.03 53 1012.0
20260905175505 33 265 1.6 8.0 0.00 0.03 0.03 54 1012.0
20260905175405 33 258 1.6 8.0 0.00 0.03 0.03 52 1012.0
20260905175306 33 257 3.2 8.0 0.00 0.03 0.03 54 1012.0
20260905175204 33 265 3.2 6.4 0.00 0.03 0.03 54 1012.0
20260905175104 33 272 3.2 8.0 0.00 0.03 0.03 50 1012.0
20260905175026 33 269 3.2 8.0 0.00 0.03 0.03 50 1012.0
20260905174904 33 259 3.2 8.0 0.00 0.03 0.03 53 1012.0
20260905174804 33 254 3.2 8.0 0.00 0.03 0.03 53 1012.0
20260905174704 33 254 3.2 8.0 0.00 0.03 0.03 54 1012.0
20260905174604 33 255 1.6 8.0 0.00 0.03 0.03 54 1012.0
20260905174504 33 260 1.6 8.0 0.00 0.03 0.03 59 1012.0
20260905174404 33 267 1.6 8.0 0.00 0.03 0.03 59 1012.1
20260905174305 33 269 1.6 8.0 0.00 0.03 0.03 55 1012.1
20260905174204 33 245 1.6 8.0 0.00 0.03 0.03 53 1012.1
20260905174104 33 188 1.6 8.0 0.00 0.03 0.03 55 1012.1
20260905174026 33 178 1.6 8.0 0.00 0.03 0.03 54 1012.1
20260905173904 33 160 1.6 8.0 0.00 0.03 0.03 55 1012.1
20260905173804 33 160 1.6 8.0 0.00 0.03 0.03 55 1012.1
20260905173725 33 159 1.6 8.0 0.00 0.03 0.03 55 1012.1
20260905173604 33 164 1.6 8.0 0.00 0.03 0.03 54 1012.1
20260905173504 33 168 1.6 8.0 0.00 0.03 0.03 54 1012.1
20260905173404 33 171 3.2 8.0 0.00 0.03 0.03 55 1012.1
20260905173306 33 176 3.2 8.0 0.00 0.03 0.03 54 1012.1
20260905173204 33 202 1.6 8.0 0.00 0.03 0.03 53 1012.1
20260905173104 33 233 1.6 8.0 0.00 0.03 0.03 55 1012.1
20260905173025 33 243 1.6 8.0 0.00 0.03 0.03 54 1012.1
20260905172904 32 266 1.6 6.4 0.00 0.03 0.03 55 1012.1
20260905172805 32 273 1.6 8.0 0.00 0.03 0.03 58 1012.1
20260905172705 32 275 1.6 8.0 0.00 0.03 0.03 55 1012.1
20260905172625 32 276 1.6 8.0 0.00 0.03 0.03 55 1012.1
20260905172506 32 273 1.6 8.0 0.00 0.03 0.03 55 1012.1
20260905172404 32 264 1.6 8.0 0.00 0.03 0.03 55 1012.1
20260905172305 32 253 1.6 8.0 0.00 0.03 0.03 54 1012.1
20260905172204 33 228 1.6 8.0 0.00 0.03 0.03 54 1012.1
20260905172104 33 200 1.6 8.0 0.00 0.03 0.03 53 1012.1
20260905172004 33 183 1.6 8.0 0.00 0.03 0.03 55 1012.1
20260905171904 33 175 1.6 8.0 0.00 0.03 0.03 55 1012.1
20260905171804 33 160 1.6 8.0 0.00 0.03 0.03 56 1012.1
20260905171704 33 159 1.6 8.0 0.00 0.03 0.03 54 1012.1
20260905171604 33 158 1.6 8.0 0.00 0.03 0.03 54 1012.1
20260905171504 32 155 1.6 8.0 0.00 0.03 0.03 54 1012.1
20260905171405 32 153 1.6 6.4 0.00 0.03 0.03 55 1012.6
20260905171304 32 152 0.0 6.4 0.00 0.03 0.03 53 1012.6
20260905171204 32 148 0.0 6.4 0.00 0.03 0.03 54 1012.6
20260905171104 32 157 0.0 6.4 0.00 0.03 0.03 56 1012.6
20260905171005 32 169 0.0 6.4 0.00 0.03 0.03 55 1012.6
20260905170906 32 169 0.0 6.4 0.00 0.03 0.03 58 1012.6
20260905170805 32 162 1.6 8.0 0.00 0.03 0.03 58 1012.6
20260905170706 32 162 1.6 8.0 0.00 0.03 0.03 55 1012.6
20260905170604 32 159 1.6 8.0 0.00 0.03 0.03 59 1012.6
20260905170525 32 154 1.6 8.0 0.00 0.03 0.03 57 1012.6
20260905170427 32 156 1.6 8.0 0.00 0.03 0.03 56 1012.6
20260905170304 32 179 1.6 8.0 0.00 0.03 0.03 57 1012.6
20260905170204 32 206 1.6 8.0 0.00 0.03 0.03 57 1012.6
20260905170104 32 227 1.6 8.0 0.00 0.03 0.03 58 1012.6
20260905170004 32 237 1.6 8.0 0.00 0.03 0.03 59 1012.6
20260905165906 32 240 1.6 8.0 0.00 0.03 0.03 57 1012.8
20260905165804 32 262 1.6 6.4 0.00 0.03 0.03 58 1012.8
20260905165704 32 262 1.6 6.4 0.00 0.03 0.03 57 1012.8
20260905165604 32 252 1.6 6.4 0.00 0.03 0.03 59 1012.8
20260905165505 32 246 1.6 6.4 0.00 0.03 0.03 59 1012.8
20260905165404 32 232 1.6 6.4 0.00 0.03 0.03 57 1012.8
20260905165306 32 204 1.6 6.4 0.00 0.03 0.03 57 1012.8
20260905165205 32 176 1.6 6.4 0.00 0.03 0.03 58 1012.8
20260905165104 32 184 1.6 6.4 0.00 0.03 0.03 57 1012.8
20260905165004 32 193 1.6 6.4 0.00 0.03 0.03 58 1012.8
20260905164904 32 189 1.6 6.4 0.00 0.03 0.03 58 1012.8
20260905164826 32 197 1.6 6.4 0.00 0.03 0.03 58 1012.8
20260905164705 32 195 1.6 6.4 0.00 0.03 0.03 59 1012.8
20260905164605 32 191 1.6 8.0 0.00 0.03 0.03 59 1012.8
20260905164506 32 199 1.6 8.0 0.00 0.03 0.03 60 1012.8
20260905164405 32 204 1.6 8.0 0.00 0.03 0.03 60 1013.1
20260905164305 32 207 1.6 8.0 0.00 0.03 0.03 58 1013.1
20260905164205 32 208 1.6 8.0 0.00 0.03 0.03 58 1013.1
20260905164126 32 196 1.6 8.0 0.00 0.03 0.03 59 1013.1
20260905164026 32 182 1.6 8.0 0.00 0.03 0.03 59 1013.1
20260905163905 32 185 1.6 8.0 0.00 0.03 0.03 57 1013.1
20260905163825 32 180 1.6 8.0 0.00 0.03 0.03 57 1013.1
20260905163704 32 194 1.6 8.0 0.00 0.03 0.03 58 1013.1
20260905163625 32 206 1.6 8.0 0.00 0.03 0.03 58 1013.1
20260905163504 32 206 1.6 6.4 0.00 0.03 0.03 57 1013.1
20260905163427 32 211 1.6 6.4 0.00 0.03 0.03 57 1013.1
20260905163304 32 213 1.6 6.4 0.00 0.03 0.03 57 1013.1
20260905163204 31 209 0.0 6.4 0.00 0.03 0.03 59 1013.1
20260905163104 31 220 0.0 4.8 0.00 0.03 0.03 60 1013.1
20260905163004 31 226 0.0 4.8 0.00 0.03 0.03 59 1013.1
20260905162925 31 226 0.0 4.8 0.00 0.03 0.03 57 1013.1
20260905162804 31 205 0.0 4.8 0.00 0.03 0.03 61 1013.1
20260905162726 31 180 0.0 4.8 0.00 0.03 0.03 57 1013.1
20260905162604 31 149 0.0 4.8 0.00 0.03 0.03 59 1013.1
20260905162504 31 133 0.0 3.2 0.00 0.03 0.03 60 1013.1
20260905162404 31 127 0.0 3.2 0.00 0.03 0.03 59 1013.1
20260905162306 31 133 0.0 3.2 0.00 0.03 0.03 59 1013.1
20260905162205 31 134 1.6 3.2 0.00 0.03 0.03 61 1013.1
20260905162104 31 141 1.6 3.2 0.00 0.03 0.03 59 1013.1
20260905162004 31 147 1.6 3.2 0.00 0.03 0.03 59 1013.1
20260905161905 31 142 1.6 3.2 0.00 0.03 0.03 61 1013.1
20260905161805 31 141 1.6 3.2 0.00 0.03 0.03 60 1013.1
20260905161704 31 142 1.6 3.2 0.00 0.03 0.03 60 1013.1
20260905161604 31 145 1.6 3.2 0.00 0.03 0.03 60 1013.1
20260905161504 31 138 1.6 3.2 0.00 0.03 0.03 61 1013.1
20260905161405 31 141 1.6 6.4 0.00 0.03 0.03 60 1013.1
20260905161305 31 142 1.6 6.4 0.00 0.03 0.03 60 1013.1
20260905161205 31 142 1.6 6.4 0.00 0.03 0.03 60 1013.1
20260905161104 31 132 1.6 6.4 0.00 0.03 0.03 60 1013.1
20260905161025 31 130 1.6 6.4 0.00 0.03 0.03 60 1013.1
20260905160905 31 135 1.6 6.4 0.00 0.03 0.03 62 1013.1
20260905160804 31 136 1.6 6.4 0.00 0.03 0.03 64 1013.1
20260905160725 31 135 1.6 6.4 0.00 0.03 0.03 63 1013.1
20260905160604 31 129 1.6 6.4 0.00 0.03 0.03 63 1013.1
20260905160504 31 136 0.0 6.4 0.00 0.03 0.03 62 1013.1
20260905160404 30 127 0.0 3.2 0.00 0.03 0.03 62 1013.1
20260905160304 30 116 0.0 3.2 0.00 0.03 0.03 61 1013.1
20260905160226 30 137 0.0 6.4 0.00 0.03 0.03 61 1013.1
20260905160105 30 172 1.6 8.0 0.00 0.03 0.03 64 1013.1
20260905160004 30 176 1.6 8.0 0.00 0.03 0.03 63 1013.1
20260905155904 30 174 1.6 8.0 0.00 0.03 0.03 63 1013.2
20260905155805 30 175 1.6 8.0 0.00 0.03 0.03 64 1013.2
20260905155725 30 180 3.2 11.3 0.00 0.03 0.03 63 1013.2
20260905155604 30 184 3.2 12.9 0.00 0.03 0.03 62 1013.2
20260905155505 30 184 3.2 12.9 0.00 0.03 0.03 65 1013.2
20260905155405 30 184 3.2 12.9 0.00 0.03 0.03 65 1013.2
20260905155306 30 184 3.2 12.9 0.00 0.03 0.03 63 1013.2
20260905155205 30 184 3.2 12.9 0.00 0.03 0.03 63 1013.2
20260905155125 30 184 3.2 12.9 0.00 0.03 0.03 62 1013.2
20260905155004 30 182 3.2 12.9 0.00 0.03 0.03 63 1013.2
20260905154904 30 178 3.2 12.9 0.00 0.03 0.03 63 1013.2
20260905154825 30 181 3.2 12.9 0.00 0.03 0.03 64 1013.2
20260905154704 30 167 1.6 8.0 0.00 0.03 0.03 66 1013.2
20260905154625 30 165 1.6 6.4 0.00 0.03 0.03 68 1013.2
20260905154505 30 152 1.6 6.4 0.00 0.03 0.03 69 1013.2
20260905154404 29 149 1.6 6.4 0.00 0.03 0.03 66 1013.5
20260905154304 29 148 1.6 6.4 0.00 0.03 0.03 69 1013.5
20260905154226 29 146 1.6 8.0 0.00 0.03 0.03 69 1013.5
20260905154104 29 147 3.2 8.0 0.00 0.03 0.03 66 1013.5
20260905154004 29 146 3.2 8.0 0.00 0.03 0.03 66 1013.5
20260905153925 29 145 1.6 8.0 0.00 0.03 0.03 67 1013.5
20260905153805 28 144 1.6 9.7 0.00 0.03 0.03 68 1013.5
20260905153704 28 143 3.2 9.7 0.00 0.03 0.03 68 1013.5
20260905153604 28 145 3.2 11.3 0.00 0.03 0.03 69 1013.5
20260905153505 28 147 3.2 11.3 0.00 0.03 0.03 68 1013.5
20260905153426 28 147 3.2 11.3 0.00 0.03 0.03 67 1013.5
20260905153305 28 147 3.2 11.3 0.00 0.03 0.03 68 1013.5
20260905153204 28 149 3.2 11.3 0.00 0.03 0.03 68 1013.5
20260905153105 28 149 3.2 11.3 0.00 0.03 0.03 68 1013.5
20260905153004 28 148 3.2 11.3 0.00 0.03 0.03 68 1013.5
20260905152904 28 145 1.6 11.3 0.00 0.03 0.03 68 1013.6
20260905152804 28 141 1.6 11.3 0.00 0.03 0.03 69 1013.6
20260905152705 28 137 1.6 11.3 0.00 0.03 0.03 69 1013.6
20260905152604 28 125 1.6 11.3 0.00 0.03 0.03 69 1013.6
20260905152504 28 112 1.6 11.3 0.00 0.03 0.03 70 1013.6
20260905152404 28 106 1.6 11.3 0.00 0.03 0.03 70 1013.6
20260905152306 28 108 3.2 11.3 0.00 0.03 0.03 70 1013.6
20260905152204 28 111 3.2 11.3 0.00 0.03 0.03 70 1013.6
20260905152105 28 113 3.2 11.3 0.00 0.03 0.03 70 1013.6
20260905152005 28 116 3.2 11.3 0.00 0.03 0.03 70 1013.6
20260905151905 28 118 3.2 11.3 0.00 0.03 0.03 70 1013.6
20260905151826 28 124 3.2 11.3 0.00 0.03 0.03 70 1013.6
20260905151704 28 125 3.2 11.3 0.00 0.03 0.03 70 1013.6
20260905151604 28 132 3.2 11.3 0.00 0.03 0.03 72 1013.6
20260905151504 28 139 3.2 11.3 0.00 0.03 0.03 70 1013.6
20260905151404 27 139 3.2 11.3 0.00 0.03 0.03 70 1013.7
20260905151305 27 137 3.2 11.3 0.00 0.03 0.03 71 1013.7
20260905151204 27 137 3.2 11.3 0.00 0.03 0.03 72 1013.7
20260905151104 27 137 3.2 11.3 0.00 0.03 0.03 72 1013.7
20260905151004 27 143 3.2 11.3 0.00 0.03 0.03 71 1013.7
20260905150905 27 142 3.2 11.3 0.00 0.03 0.03 71 1013.7
20260905150804 27 141 1.6 11.3 0.00 0.03 0.03 71 1013.7
20260905150725 27 143 1.6 11.3 0.00 0.03 0.03 72 1013.7
20260905150605 27 143 1.6 9.7 0.00 0.03 0.03 71 1013.7
20260905150504 27 146 1.6 8.0 0.00 0.03 0.03 71 1013.7
20260905150427 27 146 1.6 8.0 0.00 0.03 0.03 74 1013.7
20260905150304 27 155 1.6 8.0 0.00 0.03 0.03 73 1013.7
20260905150225 27 156 1.6 8.0 0.00 0.03 0.03 73 1013.7
20260905150104 27 142 1.6 8.0 0.00 0.03 0.03 74 1013.7
20260905150004 27 118 1.6 8.0 0.00 0.03 0.03 74 1013.7
20260905145904 27 122 1.6 8.0 0.00 0.03 0.03 74 1013.6
20260905145805 27 122 1.6 8.0 0.00 0.03 0.03 74 1013.6
20260905145726 27 122 1.6 8.0 0.00 0.03 0.03 75 1013.6
20260905145604 27 103 1.6 4.8 0.00 0.03 0.03 74 1013.6
20260905145505 27 97 1.6 4.8 0.00 0.03 0.03 75 1013.6
20260905145405 27 99 1.6 4.8 0.00 0.03 0.03 75 1013.6
20260905145306 27 102 1.6 4.8 0.00 0.03 0.03 76 1013.6
20260905145204 27 115 1.6 4.8 0.00 0.03 0.03 75 1013.6
20260905145105 27 115 1.6 4.8 0.00 0.03 0.03 76 1013.6
20260905145004 27 137 0.0 4.8 0.00 0.03 0.03 78 1013.6
20260905144904 27 121 0.0 4.8 0.00 0.03 0.03 78 1013.6
20260905144806 27 124 0.0 4.8 0.00 0.03 0.03 77 1013.6
20260905144725 27 123 0.0 4.8 0.00 0.03 0.03 78 1013.6
20260905144605 27 122 1.6 8.0 0.00 0.03 0.03 77 1013.6
20260905144525 27 131 1.6 8.0 0.00 0.03 0.03 79 1013.6
20260905144405 27 135 1.6 8.0 0.00 0.03 0.03 78 1013.6
20260905144305 26 134 1.6 8.0 0.00 0.03 0.03 78 1013.6
20260905144204 26 124 1.6 8.0 0.00 0.03 0.03 78 1013.6
20260905144105 26 135 0.0 8.0 0.00 0.03 0.03 78 1013.6
20260905144005 26 135 0.0 8.0 0.00 0.03 0.03 79 1013.6
20260905143905 26 137 0.0 8.0 0.00 0.03 0.03 80 1013.6
20260905143805 26 136 1.6 8.0 0.00 0.03 0.03 79 1013.6
20260905143704 26 136 0.0 8.0 0.00 0.03 0.03 79 1013.6
20260905143605 26 130 0.0 8.0 0.00 0.03 0.03 80 1013.6
20260905143504 26 134 1.6 11.3 0.00 0.03 0.03 80 1013.6
20260905143404 26 134 1.6 11.3 0.00 0.03 0.03 80 1013.6
20260905143305 26 134 1.6 11.3 0.00 0.03 0.03 81 1013.6
20260905143204 26 132 1.6 11.3 0.00 0.03 0.03 81 1013.6
20260905143104 26 135 1.6 11.3 0.00 0.03 0.03 81 1013.6
20260905143005 26 138 1.6 11.3 0.00 0.03 0.03 82 1013.6
20260905142925 26 138 1.6 11.3 0.03 0.03 0.03 82 1013.6
20260905142804 26 137 1.6 11.3 0.03 0.03 0.03 83 1013.7
20260905142727 26 135 1.6 11.3 0.03 0.03 0.03 82 1013.7
20260905142626 25 137 1.6 11.3 0.03 0.03 0.03 82 1013.7
20260905142504 25 136 1.6 11.3 0.03 0.03 0.03 82 1013.7
20260905142405 25 135 1.6 11.3 0.03 0.03 0.03 81 1013.7
20260905142306 25 135 1.6 11.3 0.03 0.03 0.03 81 1013.7
20260905142204 25 135 1.6 11.3 0.03 0.03 0.03 81 1013.7
20260905142104 25 132 0.0 11.3 0.03 0.03 0.03 81 1013.7
20260905142025 25 124 0.0 8.0 0.03 0.03 0.03 83 1013.7
20260905141904 25 107 0.0 8.0 0.03 0.03 0.03 83 1013.7
20260905141825 25 96 0.0 8.0 0.03 0.03 0.03 83 1013.7
20260905141705 25 96 0.0 8.0 0.03 0.03 0.03 83 1013.7
20260905141604 25 95 0.0 8.0 0.03 0.03 0.03 84 1013.7
20260905141504 25 83 0.0 4.8 0.03 0.03 0.03 84 1013.7
20260905141405 25 78 0.0 4.8 0.03 0.03 0.03 85 1013.9
20260905141304 25 106 0.0 6.4 0.03 0.03 0.03 86 1013.9
20260905141204 25 113 0.0 6.4 0.03 0.03 0.03 86 1013.9
20260905141105 25 117 0.0 6.4 0.03 0.03 0.03 86 1013.9
20260905141004 25 118 1.6 6.4 0.03 0.03 0.03 86 1013.9
20260905140904 25 131 0.0 6.4 0.03 0.03 0.03 87 1013.9
20260905140804 25 148 0.0 6.4 0.03 0.03 0.03 87 1013.9
20260905140704 25 150 0.0 6.4 0.03 0.03 0.03 87 1013.9
20260905140604 24 150 0.0 6.4 0.03 0.03 0.03 88 1013.9
20260905140504 24 149 0.0 6.4 0.03 0.03 0.03 88 1013.9
20260905140425 24 149 0.0 6.4 0.03 0.03 0.03 88 1013.9
20260905140305 24 143 0.0 6.4 0.03 0.03 0.03 89 1013.9
20260905140204 24 143 0.0 6.4 0.03 0.03 0.03 89 1013.9
20260905140104 24 141 0.0 6.4 0.03 0.03 0.03 89 1013.9
20260905140004 24 111 0.0 6.4 0.03 0.03 0.03 90 1013.9
20260905135926 23 86 0.0 4.8 0.03 0.03 0.03 90 1013.9
20260905135825 23 66 1.6 8.0 0.03 0.03 0.03 90 1014.0
20260905135704 23 58 1.6 11.3 0.03 0.03 0.03 90 1014.0
20260905135604 23 56 1.6 11.3 0.03 0.03 0.03 90 1014.0
20260905135504 23 55 1.6 11.3 0.03 0.03 0.03 90 1014.0
20260905135426 23 55 1.6 11.3 0.03 0.03 0.03 90 1014.0
20260905135306 23 55 1.6 11.3 0.03 0.03 0.03 89 1014.0
20260905135205 23 55 1.6 11.3 0.03 0.03 0.03 89 1014.0
20260905135104 23 56 1.6 11.3 0.03 0.03 0.03 89 1014.0
20260905135005 23 56 1.6 11.3 0.03 0.03 0.03 88 1014.0
20260905134905 23 54 1.6 16.1 0.03 0.03 0.03 88 1014.0
20260905134805 23 56 1.6 16.1 0.03 0.03 0.03 88 1014.0
20260905134704 23 61 1.6 16.1 0.03 0.03 0.03 88 1014.0
20260905134605 23 66 1.6 16.1 0.03 0.03 0.03 88 1014.0
20260905134504 23 65 1.6 16.1 0.03 0.03 0.03 88 1014.0
20260905134404 23 63 1.6 16.1 0.03 0.03 0.03 88 1014.6
20260905134305 23 61 3.2 16.1 0.03 0.03 0.03 88 1014.6
20260905134225 23 61 3.2 16.1 0.03 0.03 0.03 88 1014.6
20260905134125 23 62 3.2 16.1 0.03 0.03 0.03 87 1014.6
20260905134004 23 61 3.2 16.1 0.03 0.03 0.03 87 1014.6
20260905133904 23 63 3.2 12.9 0.03 0.03 0.03 87 1014.6
20260905133805 23 63 3.2 12.9 0.03 0.03 0.03 87 1014.6
20260905133725 23 62 1.6 12.9 0.03 0.03 0.03 87 1014.6
20260905133625 23 58 1.6 12.9 0.03 0.03 0.03 87 1014.6
20260905133505 24 57 1.6 11.3 0.03 0.03 0.03 86 1014.6
20260905133404 24 60 0.0 11.3 0.03 0.03 0.03 87 1014.6
20260905133305 24 74 0.0 4.8 0.03 0.03 0.03 87 1014.6
20260905133225 24 112 0.0 1.6 0.03 0.03 0.03 87 1014.6
20260905133125 24 136 0.0 1.6 0.03 0.03 0.03 86 1014.6
20260905133004 24 136 0.0 1.6 0.03 0.03 0.03 86 1014.6
20260905132925 24 136 0.0 1.6 0.00 0.00 0.00 86 1014.6
20260905132804 24 268 0.0 1.6 0.00 0.00 0.00 86 1014.6
20260905132705 24 268 0.0 3.2 0.00 0.00 0.00 86 1014.6
20260905132605 24 289 0.0 6.4 0.00 0.00 0.00 86 1014.6
20260905132526 24 290 1.6 6.4 0.00 0.00 0.00 85 1014.6
20260905132404 24 291 1.6 6.4 0.00 0.00 0.00 85 1014.6
20260905132306 24 291 1.6 6.4 0.00 0.00 0.00 85 1014.6
20260905132204 24 298 1.6 6.4 0.00 0.00 0.00 84 1014.6
20260905132106 24 312 1.6 6.4 0.00 0.00 0.00 85 1014.6
20260905132005 24 313 1.6 6.4 0.00 0.00 0.00 84 1014.6
20260905131905 24 314 1.6 6.4 0.00 0.00 0.00 84 1014.6
20260905131825 24 330 1.6 6.4 0.00 0.00 0.00 84 1014.6
20260905131704 24 37 1.6 12.9 0.00 0.00 0.00 84 1014.6
20260905131605 24 50 1.6 12.9 0.00 0.00 0.00 85 1014.6
20260905131504 24 54 1.6 12.9 0.00 0.00 0.00 84 1014.6
20260905131404 24 55 3.2 12.9 0.00 0.00 0.00 84 1014.1
20260905131304 24 56 3.2 12.9 0.00 0.00 0.00 84 1014.1
20260905131204 24 56 3.2 12.9 0.00 0.00 0.00 84 1014.1
20260905131105 24 56 3.2 12.9 0.00 0.00 0.00 84 1014.1
20260905130904 24 56 3.2 12.9 0.00 0.00 0.00 83 1014.1
20260905130805 24 57 3.2 12.9 0.00 0.00 0.00 83 1014.1
20260905130705 24 57 3.2 11.3 0.00 0.00 0.00 85 1014.1
20260905130604 24 57 3.2 9.7 0.00 0.00 0.00 85 1014.1
20260905130504 24 57 3.2 9.7 0.00 0.00 0.00 85 1014.1
20260905130405 24 57 3.2 9.7 0.00 0.00 0.00 84 1014.1
20260905130305 24 56 3.2 9.7 0.00 0.00 0.00 84 1014.1
20260905130204 24 57 1.6 9.7 0.00 0.00 0.00 84 1014.1
20260905130104 24 56 1.6 9.7 0.00 0.00 0.00 84 1014.1
20260905130004 24 57 1.6 9.7 0.00 0.00 0.00 84 1014.1
20260905125905 24 58 1.6 9.7 0.00 0.00 0.00 84 1013.5
20260905125805 24 57 1.6 9.7 0.00 0.00 0.00 83 1013.5
20260905125704 24 57 0.0 9.7 0.00 0.00 0.00 84 1013.5
20260905125605 24 158 0.0 1.6 0.00 0.00 0.00 85 1013.5
20260905125505 24 159 0.0 1.6 0.00 0.00 0.00 85 1013.5
20260905125404 24 159 0.0 1.6 0.00 0.00 0.00 86 1013.5
20260905125306 24 159 0.0 1.6 0.00 0.00 0.00 85 1013.5
20260905125204 24 137 0.0 1.6 0.00 0.00 0.00 86 1013.5
20260905125104 24 137 0.0 1.6 0.00 0.00 0.00 86 1013.5
20260905125005 24 138 0.0 1.6 0.00 0.00 0.00 86 1013.5
20260905124925 24 138 0.0 1.6 0.00 0.00 0.00 87 1013.5
20260905124804 24 128 0.0 1.6 0.00 0.00 0.00 87 1013.5
20260905124704 24 128 0.0 1.6 0.00 0.00 0.00 87 1013.5
20260905124625 24 0 0.0 0.0 0.00 0.00 0.00 87 1013.5
20260905124505 23 0 0.0 0.0 0.00 0.00 0.00 87 1013.5
20260905124425 23 0 0.0 0.0 0.00 0.00 0.00 88 1013.5
20260905124304 23 156 0.0 1.6 0.00 0.00 0.00 88 1013.5
20260905124205 23 146 0.0 3.2 0.00 0.00 0.00 88 1013.5
20260905124105 23 147 0.0 3.2 0.00 0.00 0.00 88 1013.5
20260905124004 23 146 0.0 3.2 0.00 0.00 0.00 88 1013.5
20260905123904 23 146 0.0 3.2 0.00 0.00 0.00 88 1013.5
20260905123826 23 146 0.0 3.2 0.00 0.00 0.00 88 1013.5
20260905123704 23 146 0.0 3.2 0.00 0.00 0.00 88 1013.5
20260905123604 23 146 0.0 3.2 0.00 0.00 0.00 88 1013.5
20260905123504 23 146 0.0 3.2 0.00 0.00 0.00 88 1013.5
20260905123405 23 146 0.0 3.2 0.00 0.00 0.00 89 1013.5
20260905123304 23 144 0.0 3.2 0.00 0.00 0.00 89 1013.5
20260905123204 23 144 0.0 1.6 0.00 0.00 0.00 89 1013.5
20260905123104 23 144 0.0 1.6 0.00 0.00 0.00 89 1013.5
20260905123004 23 149 0.0 1.6 0.00 0.00 0.00 89 1013.5
20260905122905 23 149 0.0 1.6 0.00 0.00 0.00 90 1013.3
20260905122804 23 154 0.0 1.6 0.00 0.00 0.00 90 1013.3
20260905122705 23 154 0.0 1.6 0.00 0.00 0.00 90 1013.3
20260905122626 23 154 0.0 1.6 0.00 0.00 0.00 90 1013.3
20260905122504 23 182 0.0 3.2 0.00 0.00 0.00 90 1013.3
20260905122404 23 167 0.0 3.2 0.00 0.00 0.00 90 1013.3
20260905122325 23 167 0.0 3.2 0.00 0.00 0.00 90 1013.3
20260905122204 23 167 0.0 3.2 0.00 0.00 0.00 91 1013.3
20260905122104 23 163 0.0 3.2 0.00 0.00 0.00 91 1013.3
20260905122025 23 167 0.0 3.2 0.00 0.00 0.00 91 1013.3
20260905121904 23 164 0.0 3.2 0.00 0.00 0.00 91 1013.3
20260905121804 23 161 0.0 3.2 0.00 0.00 0.00 91 1013.3
20260905121704 23 161 0.0 3.2 0.00 0.00 0.00 91 1013.3
20260905121626 23 159 0.0 3.2 0.00 0.00 0.00 91 1013.3
20260905121505 23 126 0.0 3.2 0.00 0.00 0.00 91 1013.3
20260905121405 23 85 0.0 1.6 0.00 0.00 0.00 92 1013.1
20260905121304 23 83 0.0 1.6 0.00 0.00 0.00 92 1013.1
20260905121204 23 71 0.0 1.6 0.00 0.00 0.00 92 1013.1
20260905121104 23 71 0.0 1.6 0.00 0.00 0.00 92 1013.1
20260905121005 23 71 0.0 1.6 0.00 0.00 0.00 92 1013.1
20260905120925 23 71 0.0 1.6 0.00 0.00 0.00 92 1013.1
20260905120805 23 71 0.0 1.6 0.00 0.00 0.00 92 1013.1
20260905120704 23 71 0.0 1.6 0.00 0.00 0.00 92 1013.1
20260905120625 23 71 0.0 1.6 0.00 0.00 0.00 92 1013.1
20260905120504 23 71 0.0 1.6 0.00 0.00 0.00 92 1013.1
20260905120425 23 71 0.0 1.6 0.00 0.00 0.00 92 1013.1
20260905120304 23 71 0.0 1.6 0.00 0.00 0.00 92 1013.1
20260905120205 23 71 0.0 1.6 0.00 0.00 0.00 92 1013.1
20260905120125 23 0 0.0 0.0 0.00 0.00 0.00 92 1013.1
20260905120025 23 71 0.0 3.2 0.00 0.00 0.00 92 1013.1
20260905115904 23 71 0.0 3.2 0.00 0.00 0.00 92 1013.0
20260905115804 23 71 0.0 3.2 0.00 0.00 0.00 92 1013.0
20260905115704 23 71 0.0 3.2 0.00 0.00 0.00 92 1013.0
20260905115625 23 71 0.0 3.2 0.00 0.00 0.00 92 1013.0
20260905115505 23 71 0.0 3.2 0.00 0.00 0.00 92 1013.0
20260905115404 23 71 0.0 3.2 0.00 0.00 0.00 92 1013.0
20260905115325 23 71 0.0 3.2 0.00 0.00 0.00 92 1013.0
20260905115226 23 71 0.0 3.2 0.00 0.00 0.00 92 1013.0
20260905115104 23 71 0.0 3.2 0.00 0.00 0.00 92 1013.0
20260905115004 23 0 0.0 0.0 0.00 0.00 0.00 93 1013.0
20260905114905 23 0 0.0 0.0 0.00 0.00 0.00 93 1013.0
20260905114804 23 0 0.0 0.0 0.00 0.00 0.00 92 1013.0
20260905114704 23 0 0.0 0.0 0.00 0.00 0.00 93 1013.0
20260905114604 23 0 0.0 0.0 0.00 0.00 0.00 93 1013.0
20260905114505 23 0 0.0 0.0 0.00 0.00 0.00 93 1013.0
20260905114405 23 0 0.0 0.0 0.00 0.00 0.00 93 1012.6
20260905114305 23 71 0.0 1.6 0.00 0.00 0.00 93 1012.6
20260905114204 23 71 0.0 1.6 0.00 0.00 0.00 93 1012.6
20260905114126 23 71 0.0 1.6 0.00 0.00 0.00 93 1012.6
20260905114004 23 71 0.0 1.6 0.00 0.00 0.00 93 1012.6
20260905113904 23 71 0.0 1.6 0.00 0.00 0.00 93 1012.6
20260905113804 23 71 0.0 1.6 0.00 0.00 0.00 93 1012.6
20260905113704 23 71 0.0 1.6 0.00 0.00 0.00 93 1012.6
20260905113605 23 71 0.0 1.6 0.00 0.00 0.00 93 1012.6
20260905113505 23 71 0.0 1.6 0.00 0.00 0.00 93 1012.6
20260905113404 23 65 0.0 6.4 0.00 0.00 0.00 93 1012.6
20260905113304 23 66 0.0 6.4 0.00 0.00 0.00 93 1012.6
20260905113225 23 68 1.6 11.3 0.00 0.00 0.00 93 1012.6
20260905113104 23 64 1.6 11.3 0.00 0.00 0.00 93 1012.6
20260905113005 23 64 1.6 11.3 0.00 0.00 0.00 93 1012.6
20260905112904 23 65 3.2 11.3 0.00 0.00 0.00 93 1012.1
20260905112804 23 65 3.2 11.3 0.00 0.00 0.00 93 1012.1
20260905112705 23 65 3.2 11.3 0.00 0.00 0.00 93 1012.1
20260905112605 23 65 3.2 11.3 0.00 0.00 0.00 93 1012.1
20260905112505 23 65 3.2 11.3 0.00 0.00 0.00 94 1012.1
20260905112405 23 66 3.2 11.3 0.00 0.00 0.00 93 1012.1
20260905112306 23 65 1.6 11.3 0.00 0.00 0.00 93 1012.1
20260905112204 23 65 1.6 9.7 0.00 0.00 0.00 93 1012.1
20260905112105 23 68 1.6 6.4 0.00 0.00 0.00 93 1012.1
20260905112004 23 70 0.0 4.8 0.00 0.00 0.00 93 1012.1
20260905111904 23 69 0.0 4.8 0.00 0.00 0.00 93 1012.1
20260905111805 23 62 0.0 1.6 0.00 0.00 0.00 93 1012.1
20260905111705 23 0 0.0 0.0 0.00 0.00 0.00 93 1012.1
20260905111604 23 0 0.0 0.0 0.00 0.00 0.00 93 1012.1
20260905111505 23 0 0.0 0.0 0.00 0.00 0.00 93 1012.1
20260905111404 23 0 0.0 0.0 0.00 0.00 0.00 93 1011.9
20260905111304 23 0 0.0 0.0 0.00 0.00 0.00 93 1011.9
20260905111204 23 0 0.0 0.0 0.00 0.00 0.00 93 1011.9
20260905111104 23 0 0.0 0.0 0.00 0.00 0.00 93 1011.9
20260905111005 23 0 0.0 0.0 0.00 0.00 0.00 93 1011.9
20260905110904 23 0 0.0 0.0 0.00 0.00 0.00 93 1011.9
20260905110804 23 0 0.0 0.0 0.00 0.00 0.00 93 1011.9
20260905110704 23 0 0.0 0.0 0.00 0.00 0.00 93 1011.9
20260905110604 23 0 0.0 0.0 0.00 0.00 0.00 93 1011.9
20260905110525 23 0 0.0 0.0 0.00 0.00 0.00 93 1011.9
20260905110405 23 0 0.0 0.0 0.00 0.00 0.00 93 1011.9
20260905110304 23 0 0.0 0.0 0.00 0.00 0.00 93 1011.9
20260905110204 23 0 0.0 0.0 0.00 0.00 0.00 93 1011.9
20260905110104 23 0 0.0 0.0 0.00 0.00 0.00 93 1011.9
20260905110005 23 0 0.0 0.0 0.00 0.00 0.00 93 1011.9
20260905105905 23 0 0.0 0.0 0.00 0.00 0.00 93 1011.8
20260905105805 23 0 0.0 0.0 0.00 0.00 0.00 93 1011.8
20260905105705 23 0 0.0 0.0 0.00 0.00 0.00 93 1011.8
20260905105626 23 0 0.0 0.0 0.00 0.00 0.00 93 1011.8
20260905105505 23 0 0.0 0.0 0.00 0.00 0.00 92 1011.8
20260905105425 23 0 0.0 0.0 0.00 0.00 0.00 92 1011.8
20260905105306 23 0 0.0 0.0 0.00 0.00 0.00 92 1011.8
20260905105205 23 0 0.0 0.0 0.00 0.00 0.00 92 1011.8
20260905105105 23 0 0.0 0.0 0.00 0.00 0.00 92 1011.8
20260905105004 23 0 0.0 0.0 0.00 0.00 0.00 92 1011.8
20260905104904 23 0 0.0 0.0 0.00 0.00 0.00 93 1011.8
20260905104825 23 0 0.0 0.0 0.00 0.00 0.00 93 1011.8
20260905104704 23 0 0.0 0.0 0.00 0.00 0.00 93 1011.8
20260905104604 23 0 0.0 0.0 0.00 0.00 0.00 93 1011.8
20260905104525 23 0 0.0 0.0 0.00 0.00 0.00 93 1011.8
20260905104425 23 0 0.0 0.0 0.00 0.00 0.00 93 1011.8
20260905104304 23 0 0.0 0.0 0.00 0.00 0.00 93 1011.6
20260905104204 23 0 0.0 0.0 0.00 0.00 0.00 93 1011.6
20260905104126 23 0 0.0 0.0 0.00 0.00 0.00 93 1011.6
20260905104004 23 328 0.0 1.6 0.00 0.00 0.00 93 1011.6
20260905103926 23 330 0.0 1.6 0.00 0.00 0.00 93 1011.6
20260905103826 23 330 0.0 1.6 0.00 0.00 0.00 93 1011.6
20260905103705 23 334 0.0 1.6 0.00 0.00 0.00 93 1011.6
20260905103605 23 334 0.0 1.6 0.00 0.00 0.00 93 1011.6
20260905103504 23 334 0.0 1.6 0.00 0.00 0.00 93 1011.6
20260905103404 23 334 0.0 1.6 0.00 0.00 0.00 93 1011.6
20260905103304 23 334 0.0 1.6 0.00 0.00 0.00 93 1011.6
20260905103204 23 334 0.0 1.6 0.00 0.00 0.00 93 1011.6
20260905103104 23 334 0.0 1.6 0.00 0.00 0.00 93 1011.6
20260905103026 23 334 0.0 1.6 0.00 0.00 0.00 93 1011.6
20260905102904 23 341 0.0 1.6 0.00 0.00 0.00 93 1011.9
20260905102805 23 341 0.0 1.6 0.00 0.00 0.00 93 1011.9
20260905102704 23 0 0.0 0.0 0.00 0.00 0.00 93 1011.9
20260905102604 23 0 0.0 0.0 0.00 0.00 0.00 93 1011.9
20260905102525 23 0 0.0 0.0 0.00 0.00 0.00 93 1011.9
20260905102405 23 0 0.0 0.0 0.00 0.00 0.00 93 1011.9
20260905102306 23 0 0.0 0.0 0.00 0.00 0.00 93 1011.9
20260905102205 23 0 0.0 0.0 0.00 0.00 0.00 93 1011.9
20260905102125 23 0 0.0 0.0 0.00 0.00 0.00 93 1011.9
20260905102026 23 0 0.0 0.0 0.00 0.00 0.00 92 1011.9
20260905101904 23 0 0.0 0.0 0.00 0.00 0.00 92 1011.9
20260905101804 23 0 0.0 0.0 0.00 0.00 0.00 92 1011.9
20260905101704 23 0 0.0 0.0 0.00 0.00 0.00 92 1011.9
20260905101604 23 0 0.0 0.0 0.00 0.00 0.00 92 1011.9
20260905101525 23 0 0.0 0.0 0.00 0.00 0.00 92 1011.9
20260905101405 23 0 0.0 0.0 0.00 0.00 0.00 92 1012.0
20260905101304 23 0 0.0 0.0 0.00 0.00 0.00 92 1012.0
20260905101204 23 0 0.0 0.0 0.00 0.00 0.00 92 1012.0
20260905101105 23 0 0.0 0.0 0.00 0.00 0.00 92 1012.0
20260905101004 23 0 0.0 0.0 0.00 0.00 0.00 92 1012.0
20260905100905 23 0 0.0 0.0 0.00 0.00 0.00 92 1012.0
20260905100805 23 0 0.0 0.0 0.00 0.00 0.00 92 1012.0
20260905100704 23 0 0.0 0.0 0.00 0.00 0.00 92 1012.0
20260905100626 23 0 0.0 0.0 0.00 0.00 0.00 92 1012.0
20260905100504 23 0 0.0 0.0 0.00 0.00 0.00 92 1012.0
20260905100404 23 0 0.0 0.0 0.00 0.00 0.00 92 1012.0
20260905100304 23 0 0.0 0.0 0.00 0.00 0.00 92 1012.0
20260905100204 23 0 0.0 0.0 0.00 0.00 0.00 92 1012.0
20260905100104 23 0 0.0 0.0 0.00 0.00 0.00 92 1012.0
20260905100004 23 0 0.0 0.0 0.00 0.00 0.00 92 1012.0
20260905095905 23 0 0.0 0.0 0.00 0.00 0.00 92 1011.7
20260905095804 23 0 0.0 0.0 0.00 0.00 0.00 92 1011.7
20260905095704 23 0 0.0 0.0 0.00 0.00 0.00 92 1011.7
20260905095604 23 0 0.0 0.0 0.00 0.00 0.00 92 1011.7
20260905095504 23 0 0.0 0.0 0.00 0.00 0.00 92 1011.7
20260905095425 23 0 0.0 0.0 0.00 0.00 0.00 92 1011.7
20260905095306 23 0 0.0 0.0 0.00 0.00 0.00 92 1011.7
20260905095204 23 0 0.0 0.0 0.00 0.00 0.00 92 1011.7
20260905095104 23 0 0.0 0.0 0.00 0.00 0.00 92 1011.7
20260905095004 23 0 0.0 0.0 0.00 0.00 0.00 92 1011.7
20260905094905 23 0 0.0 0.0 0.00 0.00 0.00 92 1011.7
20260905094805 23 0 0.0 0.0 0.00 0.00 0.00 92 1011.7
20260905094725 23 0 0.0 0.0 0.00 0.00 0.00 92 1011.7
20260905094604 23 0 0.0 0.0 0.00 0.00 0.00 92 1011.7
20260905094525 23 0 0.0 0.0 0.00 0.00 0.00 92 1011.7
20260905094404 23 0 0.0 0.0 0.00 0.00 0.00 92 1011.6
20260905094304 23 0 0.0 0.0 0.00 0.00 0.00 92 1011.6
20260905094205 23 0 0.0 0.0 0.00 0.00 0.00 92 1011.6
20260905094125 23 0 0.0 0.0 0.00 0.00 0.00 92 1011.6
20260905094004 23 0 0.0 0.0 0.00 0.00 0.00 92 1011.6
20260905093925 23 0 0.0 0.0 0.00 0.00 0.00 92 1011.6
20260905093804 23 0 0.0 0.0 0.00 0.00 0.00 93 1011.6
20260905093705 23 0 0.0 0.0 0.00 0.00 0.00 93 1011.6
20260905093605 23 327 0.0 1.6 0.00 0.00 0.00 93 1011.6
20260905093505 23 327 0.0 1.6 0.00 0.00 0.00 93 1011.6
20260905093404 23 327 0.0 1.6 0.00 0.00 0.00 93 1011.6
20260905093304 23 317 0.0 1.6 0.00 0.00 0.00 93 1011.6
20260905093204 23 317 0.0 1.6 0.00 0.00 0.00 93 1011.6
20260905093104 23 317 0.0 1.6 0.00 0.00 0.00 93 1011.6
20260905093005 23 359 0.0 3.2 0.00 0.00 0.00 93 1011.6
20260905092905 23 6 0.0 3.2 0.00 0.00 0.00 93 1011.4
20260905092804 23 6 0.0 3.2 0.00 0.00 0.00 93 1011.4
20260905092704 23 357 0.0 3.2 0.00 0.00 0.00 93 1011.4
20260905092605 23 360 0.0 3.2 0.00 0.00 0.00 93 1011.4
20260905092505 23 2 0.0 3.2 0.00 0.00 0.00 93 1011.4
20260905092405 23 2 0.0 3.2 0.00 0.00 0.00 93 1011.4
20260905092306 23 8 0.0 3.2 0.00 0.00 0.00 93 1011.4
20260905092204 23 8 0.0 3.2 0.00 0.00 0.00 93 1011.4
20260905092125 23 8 0.0 3.2 0.00 0.00 0.00 93 1011.4
20260905092005 23 355 0.0 1.6 0.00 0.00 0.00 93 1011.4
20260905091904 23 339 0.0 1.6 0.00 0.00 0.00 93 1011.4
20260905091805 23 339 0.0 1.6 0.00 0.00 0.00 93 1011.4
20260905091704 23 0 0.0 0.0 0.00 0.00 0.00 93 1011.4
20260905091604 23 0 0.0 0.0 0.00 0.00 0.00 93 1011.4
20260905091505 23 0 0.0 0.0 0.00 0.00 0.00 93 1011.4
20260905091405 23 0 0.0 0.0 0.00 0.00 0.00 92 1011.0
20260905091326 23 0 0.0 0.0 0.00 0.00 0.00 92 1011.0
20260905091204 23 0 0.0 0.0 0.00 0.00 0.00 92 1011.0
20260905091104 23 0 0.0 0.0 0.00 0.00 0.00 92 1011.0
20260905091005 23 0 0.0 0.0 0.00 0.00 0.00 92 1011.0
20260905090905 23 0 0.0 0.0 0.00 0.00 0.00 92 1011.0
20260905090804 23 0 0.0 0.0 0.00 0.00 0.00 92 1011.0
20260905090704 23 0 0.0 0.0 0.00 0.00 0.00 92 1011.0
20260905090605 23 0 0.0 0.0 0.00 0.00 0.00 92 1011.0
20260905090505 23 0 0.0 0.0 0.00 0.00 0.00 92 1011.0
20260905090404 23 0 0.0 0.0 0.00 0.00 0.00 92 1011.0
20260905090304 23 0 0.0 0.0 0.00 0.00 0.00 92 1011.0
20260905090204 23 0 0.0 0.0 0.00 0.00 0.00 92 1011.0
20260905090105 23 0 0.0 0.0 0.00 0.00 0.00 92 1011.0
20260905090004 23 0 0.0 0.0 0.00 0.00 0.00 92 1011.0
20260905085904 23 0 0.0 0.0 0.00 0.00 0.00 92 1011.1
20260905085805 23 0 0.0 0.0 0.00 0.00 0.00 92 1011.1
20260905085725 23 0 0.0 0.0 0.00 0.00 0.00 92 1011.1
20260905085605 23 0 0.0 0.0 0.00 0.00 0.00 92 1011.1
20260905085525 23 0 0.0 0.0 0.00 0.00 0.00 92 1011.1
20260905085405 23 0 0.0 0.0 0.00 0.00 0.00 92 1011.1
20260905085306 23 0 0.0 0.0 0.00 0.00 0.00 92 1011.1
20260905085205 23 0 0.0 0.0 0.00 0.00 0.00 92 1011.1
20260905085125 23 0 0.0 0.0 0.00 0.00 0.00 92 1011.1
20260905085004 23 0 0.0 0.0 0.00 0.00 0.00 92 1011.1
20260905084905 23 0 0.0 0.0 0.00 0.00 0.00 92 1011.1
20260905084826 23 0 0.0 0.0 0.00 0.00 0.00 92 1011.1
20260905084704 23 0 0.0 0.0 0.00 0.00 0.00 92 1011.1
20260905084605 23 0 0.0 0.0 0.00 0.00 0.00 92 1011.1
20260905084505 23 0 0.0 0.0 0.00 0.00 0.00 92 1011.1
20260905084405 23 0 0.0 0.0 0.00 0.00 0.00 92 1011.0
20260905084304 23 0 0.0 0.0 0.00 0.00 0.00 92 1011.0
20260905084204 23 0 0.0 0.0 0.00 0.00 0.00 92 1011.0
20260905084125 23 0 0.0 0.0 0.00 0.00 0.00 92 1011.0
20260905084004 23 0 0.0 0.0 0.00 0.00 0.00 92 1011.0
20260905083905 23 0 0.0 0.0 0.00 0.00 0.00 92 1011.0
20260905083825 23 0 0.0 0.0 0.00 0.00 0.00 92 1011.0
20260905083704 23 0 0.0 0.0 0.00 0.00 0.00 92 1011.0
20260905083604 24 0 0.0 0.0 0.00 0.00 0.00 92 1011.0
20260905083504 24 0 0.0 0.0 0.00 0.00 0.00 92 1011.0
20260905083404 24 0 0.0 0.0 0.00 0.00 0.00 92 1011.0
20260905083304 24 0 0.0 0.0 0.00 0.00 0.00 92 1011.0
20260905083205 24 0 0.0 0.0 0.00 0.00 0.00 92 1011.0
20260905083104 24 0 0.0 0.0 0.00 0.00 0.00 91 1011.0
20260905083004 24 0 0.0 0.0 0.00 0.00 0.00 91 1011.0
20260905082925 24 0 0.0 0.0 0.00 0.00 0.00 91 1011.0
20260905082825 24 0 0.0 0.0 0.00 0.00 0.00 91 1011.1
20260905082704 24 0 0.0 0.0 0.00 0.00 0.00 91 1011.1
20260905082604 24 0 0.0 0.0 0.00 0.00 0.00 91 1011.1
20260905082526 24 0 0.0 0.0 0.00 0.00 0.00 91 1011.1
20260905082405 24 0 0.0 0.0 0.00 0.00 0.00 91 1011.1
20260905082307 24 0 0.0 0.0 0.00 0.00 0.00 91 1011.1
20260905082206 24 0 0.0 0.0 0.00 0.00 0.00 91 1011.1
20260905082104 24 0 0.0 0.0 0.00 0.00 0.00 91 1011.1
20260905082004 24 0 0.0 0.0 0.00 0.00 0.00 92 1011.1
20260905081905 24 0 0.0 0.0 0.00 0.00 0.00 91 1011.1
20260905081805 24 0 0.0 0.0 0.00 0.00 0.00 91 1011.1
20260905081705 24 0 0.0 0.0 0.00 0.00 0.00 91 1011.1
20260905081604 24 0 0.0 0.0 0.00 0.00 0.00 91 1011.1
20260905081505 24 0 0.0 0.0 0.00 0.00 0.00 91 1011.1
20260905081404 24 0 0.0 0.0 0.00 0.00 0.00 92 1011.2
20260905081304 24 0 0.0 0.0 0.00 0.00 0.00 92 1011.2
20260905081225 24 0 0.0 0.0 0.00 0.00 0.00 92 1011.2
20260905081104 24 0 0.0 0.0 0.00 0.00 0.00 92 1011.2
20260905081026 24 0 0.0 0.0 0.00 0.00 0.00 92 1011.2
20260905080904 24 0 0.0 0.0 0.00 0.00 0.00 92 1011.2
20260905080804 24 0 0.0 0.0 0.00 0.00 0.00 92 1011.2
20260905080704 24 0 0.0 0.0 0.00 0.00 0.00 92 1011.2
20260905080626 24 0 0.0 0.0 0.00 0.00 0.00 92 1011.2
20260905080505 24 0 0.0 0.0 0.00 0.00 0.00 92 1011.2
20260905080404 24 0 0.0 0.0 0.00 0.00 0.00 92 1011.2
20260905080325 24 0 0.0 0.0 0.00 0.00 0.00 92 1011.2
20260905080204 24 0 0.0 0.0 0.00 0.00 0.00 92 1011.2
20260905080104 24 0 0.0 0.0 0.00 0.00 0.00 92 1011.2
20260905080005 24 0 0.0 0.0 0.00 0.00 0.00 92 1011.2
20260905075904 24 0 0.0 0.0 0.00 0.00 0.00 92 1011.3
20260905075825 24 0 0.0 0.0 0.00 0.00 0.00 92 1011.3
20260905075704 24 0 0.0 0.0 0.00 0.00 0.00 92 1011.3
20260905075625 24 0 0.0 0.0 0.00 0.00 0.00 92 1011.3
20260905075526 24 0 0.0 0.0 0.00 0.00 0.00 91 1011.3
20260905075405 24 0 0.0 0.0 0.00 0.00 0.00 91 1011.3
20260905075306 24 0 0.0 0.0 0.00 0.00 0.00 91 1011.3
20260905075226 24 0 0.0 0.0 0.00 0.00 0.00 91 1011.3
20260905075105 24 0 0.0 0.0 0.00 0.00 0.00 91 1011.3
20260905075004 24 0 0.0 0.0 0.00 0.00 0.00 91 1011.3
20260905074905 24 0 0.0 0.0 0.00 0.00 0.00 91 1011.3
20260905074804 24 0 0.0 0.0 0.00 0.00 0.00 91 1011.3
20260905074705 24 0 0.0 0.0 0.00 0.00 0.00 91 1011.3
20260905074604 24 0 0.0 0.0 0.00 0.00 0.00 91 1011.3
20260905074504 24 0 0.0 0.0 0.00 0.00 0.00 91 1011.3
20260905074405 24 0 0.0 0.0 0.00 0.00 0.00 91 1011.5
20260905074305 24 0 0.0 0.0 0.00 0.00 0.00 91 1011.5
20260905074225 24 0 0.0 0.0 0.00 0.00 0.00 91 1011.5
20260905074104 24 0 0.0 0.0 0.00 0.00 0.00 91 1011.5
20260905074004 24 0 0.0 0.0 0.00 0.00 0.00 92 1011.5
20260905073905 24 0 0.0 0.0 0.00 0.00 0.00 92 1011.5
20260905073805 24 0 0.0 0.0 0.00 0.00 0.00 92 1011.5
20260905073704 24 0 0.0 0.0 0.00 0.00 0.00 92 1011.5
20260905073604 24 0 0.0 0.0 0.00 0.00 0.00 91 1011.5
20260905073525 24 0 0.0 0.0 0.00 0.00 0.00 91 1011.5
20260905073405 24 0 0.0 0.0 0.00 0.00 0.00 91 1011.5
20260905073305 24 0 0.0 0.0 0.00 0.00 0.00 91 1011.5
20260905073205 24 0 0.0 0.0 0.00 0.00 0.00 91 1011.5
20260905073125 24 0 0.0 0.0 0.00 0.00 0.00 92 1011.5
20260905073004 24 0 0.0 0.0 0.00 0.00 0.00 92 1011.5
20260905072905 24 0 0.0 0.0 0.00 0.00 0.00 92 1011.6
20260905072804 24 0 0.0 0.0 0.00 0.00 0.00 92 1011.6
20260905072704 24 0 0.0 0.0 0.00 0.00 0.00 91 1011.6
20260905072604 24 0 0.0 0.0 0.00 0.00 0.00 92 1011.6
20260905072505 24 0 0.0 0.0 0.00 0.00 0.00 92 1011.6
20260905072405 24 0 0.0 0.0 0.00 0.00 0.00 92 1011.6
20260905072325 24 0 0.0 0.0 0.00 0.00 0.00 92 1011.6
20260905072204 24 0 0.0 0.0 0.00 0.00 0.00 91 1011.6
20260905072105 24 0 0.0 0.0 0.00 0.00 0.00 91 1011.6
20260905072004 24 0 0.0 0.0 0.00 0.00 0.00 91 1011.6
20260905071904 24 0 0.0 0.0 0.00 0.00 0.00 91 1011.6
20260905071805 24 0 0.0 0.0 0.00 0.00 0.00 91 1011.6
20260905071704 24 0 0.0 0.0 0.00 0.00 0.00 91 1011.6
20260905071604 24 0 0.0 0.0 0.00 0.00 0.00 91 1011.6
20260905071504 24 0 0.0 0.0 0.00 0.00 0.00 91 1011.6
20260905071426 24 0 0.0 0.0 0.00 0.00 0.00 91 1011.6
20260905071325 24 0 0.0 0.0 0.00 0.00 0.00 91 1011.6
20260905071225 24 0 0.0 0.0 0.00 0.00 0.00 91 1011.6
20260905071104 24 0 0.0 0.0 0.00 0.00 0.00 91 1011.6
20260905071005 24 0 0.0 0.0 0.00 0.00 0.00 91 1011.6
20260905070905 24 0 0.0 0.0 0.00 0.00 0.00 91 1011.6
20260905070804 24 0 0.0 0.0 0.00 0.00 0.00 91 1011.6
20260905070705 24 0 0.0 0.0 0.00 0.00 0.00 91 1011.6
20260905070605 24 0 0.0 0.0 0.00 0.00 0.00 91 1011.6
20260905070504 24 0 0.0 0.0 0.00 0.00 0.00 91 1011.6
20260905070405 24 0 0.0 0.0 0.00 0.00 0.00 91 1011.6
20260905070304 24 0 0.0 0.0 0.00 0.00 0.00 91 1011.6
20260905070205 24 0 0.0 0.0 0.00 0.00 0.00 91 1011.6
20260905070126 24 0 0.0 0.0 0.00 0.00 0.00 91 1011.6
20260905070004 24 0 0.0 0.0 0.00 0.00 0.00 91 1011.6
20260905065904 24 0 0.0 0.0 0.00 0.00 0.00 91 1012.0
20260905065804 24 0 0.0 0.0 0.00 0.00 0.00 91 1012.0
20260905065705 24 0 0.0 0.0 0.00 0.00 0.00 91 1012.0
20260905065605 24 0 0.0 0.0 0.00 0.00 0.00 91 1012.0
20260905065504 24 0 0.0 0.0 0.00 0.00 0.00 91 1012.0
20260905065426 24 0 0.0 0.0 0.00 0.00 0.00 91 1012.0
20260905065306 24 0 0.0 0.0 0.00 0.00 0.00 91 1012.0
20260905065204 24 0 0.0 0.0 0.00 0.00 0.00 91 1012.0
20260905065125 24 0 0.0 0.0 0.00 0.00 0.00 91 1012.0
20260905065004 24 0 0.0 0.0 0.00 0.00 0.00 91 1012.0
20260905064904 24 0 0.0 0.0 0.00 0.00 0.00 91 1012.0
20260905064804 24 0 0.0 0.0 0.00 0.00 0.00 91 1012.0
20260905064705 24 0 0.0 0.0 0.00 0.00 0.00 91 1012.0
20260905064625 24 0 0.0 0.0 0.00 0.00 0.00 91 1012.0
20260905064505 24 0 0.0 0.0 0.00 0.00 0.00 91 1012.0
20260905064405 24 0 0.0 0.0 0.00 0.00 0.00 91 1012.1
20260905064326 24 0 0.0 0.0 0.00 0.00 0.00 91 1012.1
20260905064204 24 0 0.0 0.0 0.00 0.00 0.00 91 1012.1
20260905064125 24 0 0.0 0.0 0.00 0.00 0.00 91 1012.1
20260905064004 24 0 0.0 0.0 0.00 0.00 0.00 91 1012.1
20260905063905 24 0 0.0 0.0 0.00 0.00 0.00 91 1012.1
20260905063805 24 0 0.0 0.0 0.00 0.00 0.00 91 1012.1
20260905063704 24 0 0.0 0.0 0.00 0.00 0.00 91 1012.1
20260905063605 24 0 0.0 0.0 0.00 0.00 0.00 91 1012.1
20260905063505 24 0 0.0 0.0 0.00 0.00 0.00 91 1012.1
20260905063405 24 0 0.0 0.0 0.00 0.00 0.00 91 1012.1
20260905063304 24 0 0.0 0.0 0.00 0.00 0.00 91 1012.1
20260905063205 24 0 0.0 0.0 0.00 0.00 0.00 91 1012.1
20260905063104 24 0 0.0 0.0 0.00 0.00 0.00 91 1012.1
20260905063005 24 0 0.0 0.0 0.00 0.00 0.00 91 1012.1
20260905062904 24 0 0.0 0.0 0.00 0.00 0.00 91 1012.2
20260905062805 24 0 0.0 0.0 0.00 0.00 0.00 91 1012.2
20260905062705 24 0 0.0 0.0 0.00 0.00 0.00 91 1012.2
20260905062626 24 0 0.0 0.0 0.00 0.00 0.00 91 1012.2
20260905062525 24 0 0.0 0.0 0.00 0.00 0.00 91 1012.2
20260905062404 24 0 0.0 0.0 0.00 0.00 0.00 91 1012.2
20260905062306 24 0 0.0 0.0 0.00 0.00 0.00 91 1012.2
20260905062204 24 0 0.0 0.0 0.00 0.00 0.00 91 1012.2
20260905062104 24 0 0.0 0.0 0.00 0.00 0.00 91 1012.2
20260905062004 24 0 0.0 0.0 0.00 0.00 0.00 91 1012.2
20260905061925 24 0 0.0 0.0 0.00 0.00 0.00 91 1012.2
20260905061805 24 0 0.0 0.0 0.00 0.00 0.00 90 1012.2
20260905061704 24 0 0.0 0.0 0.00 0.00 0.00 90 1012.2
20260905061604 24 0 0.0 0.0 0.00 0.00 0.00 90 1012.2
20260905061504 24 0 0.0 0.0 0.00 0.00 0.00 90 1012.2
20260905061404 24 0 0.0 0.0 0.00 0.00 0.00 90 1012.5
20260905061304 24 0 0.0 0.0 0.00 0.00 0.00 90 1012.5
20260905061226 24 0 0.0 0.0 0.00 0.00 0.00 90 1012.5
20260905061104 24 0 0.0 0.0 0.00 0.00 0.00 91 1012.5
20260905061004 24 0 0.0 0.0 0.00 0.00 0.00 91 1012.5
20260905060905 24 0 0.0 0.0 0.00 0.00 0.00 91 1012.5
20260905060804 24 0 0.0 0.0 0.00 0.00 0.00 91 1012.5
20260905060704 24 0 0.0 0.0 0.00 0.00 0.00 91 1012.5
20260905060604 24 0 0.0 0.0 0.00 0.00 0.00 91 1012.5
20260905060505 24 0 0.0 0.0 0.00 0.00 0.00 91 1012.5
20260905060405 24 0 0.0 0.0 0.00 0.00 0.00 91 1012.5
20260905060305 24 0 0.0 0.0 0.00 0.00 0.00 91 1012.5
20260905060204 24 0 0.0 0.0 0.00 0.00 0.00 91 1012.5
20260905060104 24 0 0.0 0.0 0.00 0.00 0.00 91 1012.5
20260905060005 24 0 0.0 0.0 0.00 0.00 0.00 91 1012.5
20260905055905 24 0 0.0 0.0 0.00 0.00 0.00 91 1012.5
20260905055825 24 0 0.0 0.0 0.00 0.00 0.00 91 1012.5
20260905055705 24 0 0.0 0.0 0.00 0.00 0.00 91 1012.5
20260905055605 24 0 0.0 0.0 0.00 0.00 0.00 91 1012.5
20260905055526 24 0 0.0 0.0 0.00 0.00 0.00 91 1012.5
20260905055404 24 0 0.0 0.0 0.00 0.00 0.00 91 1012.5
20260905055306 24 0 0.0 0.0 0.00 0.00 0.00 91 1012.5
20260905055205 24 0 0.0 0.0 0.00 0.00 0.00 91 1012.5
20260905055104 24 0 0.0 0.0 0.00 0.00 0.00 91 1012.5
20260905055004 24 0 0.0 0.0 0.00 0.00 0.00 91 1012.5
20260905054905 24 0 0.0 0.0 0.00 0.00 0.00 91 1012.5
20260905054804 24 0 0.0 0.0 0.00 0.00 0.00 91 1012.5
20260905054726 24 0 0.0 0.0 0.00 0.00 0.00 91 1012.5
20260905054604 24 0 0.0 0.0 0.00 0.00 0.00 91 1012.5
20260905054525 24 0 0.0 0.0 0.00 0.00 0.00 91 1012.5
20260905054404 24 0 0.0 0.0 0.00 0.00 0.00 91 1012.6
20260905054304 24 0 0.0 0.0 0.00 0.00 0.00 91 1012.6
20260905054204 24 0 0.0 0.0 0.00 0.00 0.00 91 1012.6
20260905054104 24 0 0.0 0.0 0.00 0.00 0.00 91 1012.6
20260905054004 24 0 0.0 0.0 0.00 0.00 0.00 91 1012.6
20260905053904 24 0 0.0 0.0 0.00 0.00 0.00 91 1012.6
20260905053825 24 0 0.0 0.0 0.00 0.00 0.00 91 1012.6
20260905053704 24 0 0.0 0.0 0.00 0.00 0.00 91 1012.6
20260905053604 24 0 0.0 0.0 0.00 0.00 0.00 91 1012.6
20260905053505 24 0 0.0 0.0 0.00 0.00 0.00 91 1012.6
20260905053404 24 0 0.0 0.0 0.00 0.00 0.00 91 1012.6
20260905053326 24 0 0.0 0.0 0.00 0.00 0.00 91 1012.6
20260905053225 24 0 0.0 0.0 0.00 0.00 0.00 91 1012.6
20260905053104 24 0 0.0 0.0 0.00 0.00 0.00 91 1012.6
20260905053025 24 0 0.0 0.0 0.00 0.00 0.00 91 1012.6
20260905052904 24 0 0.0 0.0 0.00 0.00 0.00 91 1012.6
20260905052804 24 0 0.0 0.0 0.00 0.00 0.00 91 1012.6
20260905052725 24 0 0.0 0.0 0.00 0.00 0.00 91 1012.6
20260905052604 24 0 0.0 0.0 0.00 0.00 0.00 91 1012.6
20260905052504 24 0 0.0 0.0 0.00 0.00 0.00 91 1012.6
20260905052405 24 0 0.0 0.0 0.00 0.00 0.00 91 1012.6
20260905052306 24 0 0.0 0.0 0.00 0.00 0.00 91 1012.6
20260905052205 24 0 0.0 0.0 0.00 0.00 0.00 91 1012.6
20260905052126 24 0 0.0 0.0 0.00 0.00 0.00 91 1012.6
20260905052005 24 0 0.0 0.0 0.00 0.00 0.00 91 1012.6
20260905051904 24 0 0.0 0.0 0.00 0.00 0.00 91 1012.6
20260905051804 24 0 0.0 0.0 0.00 0.00 0.00 91 1012.6
20260905051704 24 0 0.0 0.0 0.00 0.00 0.00 90 1012.6
20260905051604 24 0 0.0 0.0 0.00 0.00 0.00 90 1012.6
20260905051504 24 0 0.0 0.0 0.00 0.00 0.00 90 1012.6
20260905051404 24 0 0.0 0.0 0.00 0.00 0.00 90 1012.7
20260905051304 24 0 0.0 0.0 0.00 0.00 0.00 90 1012.7
20260905051204 24 0 0.0 0.0 0.00 0.00 0.00 90 1012.7
20260905051104 24 0 0.0 0.0 0.00 0.00 0.00 90 1012.7
20260905051005 24 0 0.0 0.0 0.00 0.00 0.00 90 1012.7
20260905050905 24 0 0.0 0.0 0.00 0.00 0.00 90 1012.7
20260905050805 24 0 0.0 0.0 0.00 0.00 0.00 90 1012.7
20260905050704 24 0 0.0 0.0 0.00 0.00 0.00 90 1012.7
20260905050605 24 0 0.0 0.0 0.00 0.00 0.00 90 1012.7
20260905050526 24 0 0.0 0.0 0.00 0.00 0.00 90 1012.7
20260905050404 24 0 0.0 0.0 0.00 0.00 0.00 90 1012.7
20260905050325 24 0 0.0 0.0 0.00 0.00 0.00 90 1012.7
20260905050204 24 0 0.0 0.0 0.00 0.00 0.00 90 1012.7
20260905050104 24 0 0.0 0.0 0.00 0.00 0.00 90 1012.7
20260905050004 24 0 0.0 0.0 0.00 0.00 0.00 90 1012.7
20260905045904 24 0 0.0 0.0 0.00 0.00 0.00 90 1012.7
20260905045825 24 0 0.0 0.0 0.00 0.00 0.00 90 1012.7
20260905045705 24 0 0.0 0.0 0.00 0.00 0.00 90 1012.7
20260905045605 25 0 0.0 0.0 0.00 0.00 0.00 90 1012.7
20260905045504 25 0 0.0 0.0 0.00 0.00 0.00 90 1012.7
20260905045404 25 0 0.0 0.0 0.00 0.00 0.00 90 1012.7
20260905045305 25 0 0.0 0.0 0.00 0.00 0.00 90 1012.7
20260905045204 25 0 0.0 0.0 0.00 0.00 0.00 90 1012.7
20260905045105 25 0 0.0 0.0 0.00 0.00 0.00 90 1012.7
20260905045004 25 0 0.0 0.0 0.00 0.00 0.00 90 1012.7
20260905044904 25 0 0.0 0.0 0.00 0.00 0.00 90 1012.7
20260905044804 25 0 0.0 0.0 0.00 0.00 0.00 90 1012.7
20260905044725 25 0 0.0 0.0 0.00 0.00 0.00 90 1012.7
20260905044626 25 0 0.0 0.0 0.00 0.00 0.00 90 1012.7
20260905044504 25 0 0.0 0.0 0.00 0.00 0.00 90 1012.7
20260905044405 25 0 0.0 0.0 0.00 0.00 0.00 90 1012.8
20260905044305 25 0 0.0 0.0 0.00 0.00 0.00 90 1012.8
20260905044205 25 0 0.0 0.0 0.00 0.00 0.00 90 1012.8
20260905044104 25 0 0.0 0.0 0.00 0.00 0.00 90 1012.8
20260905044004 25 0 0.0 0.0 0.00 0.00 0.00 90 1012.8
20260905043904 25 0 0.0 0.0 0.00 0.00 0.00 90 1012.8
20260905043825 25 0 0.0 0.0 0.00 0.00 0.00 90 1012.8
20260905043705 25 0 0.0 0.0 0.00 0.00 0.00 90 1012.8
20260905043625 25 0 0.0 0.0 0.00 0.00 0.00 90 1012.8
20260905043505 25 0 0.0 0.0 0.00 0.00 0.00 90 1012.8
20260905043405 25 0 0.0 0.0 0.00 0.00 0.00 90 1012.8
20260905043305 25 0 0.0 0.0 0.00 0.00 0.00 90 1012.8
20260905043204 25 0 0.0 0.0 0.00 0.00 0.00 90 1012.8
20260905043104 25 0 0.0 0.0 0.00 0.00 0.00 90 1012.8
20260905043004 25 0 0.0 0.0 0.00 0.00 0.00 90 1012.8
20260905042904 25 0 0.0 0.0 0.00 0.00 0.00 89 1012.7
20260905042805 25 0 0.0 0.0 0.00 0.00 0.00 89 1012.7
20260905042704 25 0 0.0 0.0 0.00 0.00 0.00 89 1012.7
20260905042605 25 0 0.0 0.0 0.00 0.00 0.00 89 1012.7
20260905042504 25 0 0.0 0.0 0.00 0.00 0.00 89 1012.7
20260905042405 25 0 0.0 0.0 0.00 0.00 0.00 89 1012.7
20260905042307 25 0 0.0 0.0 0.00 0.00 0.00 89 1012.7
20260905042204 25 0 0.0 0.0 0.00 0.00 0.00 89 1012.7
20260905042106 25 0 0.0 0.0 0.00 0.00 0.00 89 1012.7
20260905042025 25 0 0.0 0.0 0.00 0.00 0.00 89 1012.7
20260905041926 25 0 0.0 0.0 0.00 0.00 0.00 89 1012.7
20260905041804 25 0 0.0 0.0 0.00 0.00 0.00 89 1012.7
20260905041704 25 0 0.0 0.0 0.00 0.00 0.00 89 1012.7
20260905041625 25 0 0.0 0.0 0.00 0.00 0.00 89 1012.7
20260905041525 25 0 0.0 0.0 0.00 0.00 0.00 89 1012.7
20260905041404 25 0 0.0 0.0 0.00 0.00 0.00 89 1012.7
20260905041304 25 0 0.0 0.0 0.00 0.00 0.00 89 1012.7
20260905041205 25 0 0.0 0.0 0.00 0.00 0.00 89 1012.7
20260905041105 25 0 0.0 0.0 0.00 0.00 0.00 89 1012.7
20260905041004 25 0 0.0 0.0 0.00 0.00 0.00 89 1012.7
20260905040904 25 0 0.0 0.0 0.00 0.00 0.00 89 1012.7
20260905040804 25 0 0.0 0.0 0.00 0.00 0.00 89 1012.7
20260905040704 25 0 0.0 0.0 0.00 0.00 0.00 89 1012.7
20260905040605 25 0 0.0 0.0 0.00 0.00 0.00 89 1012.7
20260905040505 25 0 0.0 0.0 0.00 0.00 0.00 89 1012.7
20260905040404 25 0 0.0 0.0 0.00 0.00 0.00 89 1012.7
20260905040304 25 0 0.0 0.0 0.00 0.00 0.00 89 1012.7
20260905040204 25 0 0.0 0.0 0.00 0.00 0.00 89 1012.7
20260905040104 25 0 0.0 0.0 0.00 0.00 0.00 89 1012.7
20260905040026 25 0 0.0 0.0 0.00 0.00 0.00 89 1012.7
20260905035904 25 0 0.0 0.0 0.00 0.00 0.00 89 1012.9
20260905035805 25 0 0.0 0.0 0.00 0.00 0.00 89 1012.9
20260905035725 25 0 0.0 0.0 0.00 0.00 0.00 89 1012.9
20260905035604 25 0 0.0 0.0 0.00 0.00 0.00 89 1012.9
20260905035504 25 0 0.0 0.0 0.00 0.00 0.00 89 1012.9
20260905035405 25 0 0.0 0.0 0.00 0.00 0.00 89 1012.9
20260905035306 25 0 0.0 0.0 0.00 0.00 0.00 89 1012.9
20260905035204 25 0 0.0 0.0 0.00 0.00 0.00 89 1012.9
20260905035104 25 0 0.0 0.0 0.00 0.00 0.00 89 1012.9
20260905035004 25 0 0.0 0.0 0.00 0.00 0.00 89 1012.9
20260905034904 25 0 0.0 0.0 0.00 0.00 0.00 89 1012.9
20260905034804 25 0 0.0 0.0 0.00 0.00 0.00 89 1012.9
20260905034704 25 0 0.0 0.0 0.00 0.00 0.00 89 1012.9
20260905034604 25 0 0.0 0.0 0.00 0.00 0.00 89 1012.9
20260905034504 25 0 0.0 0.0 0.00 0.00 0.00 89 1012.9
20260905034405 25 0 0.0 0.0 0.00 0.00 0.00 89 1012.9
20260905034304 25 0 0.0 0.0 0.00 0.00 0.00 89 1012.9
20260905034205 25 0 0.0 0.0 0.00 0.00 0.00 89 1012.9
20260905034104 25 0 0.0 0.0 0.00 0.00 0.00 89 1012.9
20260905034005 25 0 0.0 0.0 0.00 0.00 0.00 89 1012.9
20260905033903 25 0 0.0 0.0 0.00 0.00 0.00 89 1012.9
20260905033804 25 0 0.0 0.0 0.00 0.00 0.00 89 1012.9
20260905033726 25 0 0.0 0.0 0.00 0.00 0.00 89 1012.9
20260905033625 25 0 0.0 0.0 0.00 0.00 0.00 89 1012.9
20260905033504 25 0 0.0 0.0 0.00 0.00 0.00 89 1012.9
20260905033425 25 0 0.0 0.0 0.00 0.00 0.00 89 1012.9
20260905033304 25 0 0.0 0.0 0.00 0.00 0.00 89 1012.9
20260905033204 25 0 0.0 0.0 0.00 0.00 0.00 89 1012.9
20260905033104 25 0 0.0 0.0 0.00 0.00 0.00 89 1012.9
20260905033025 25 0 0.0 0.0 0.00 0.00 0.00 88 1012.9
20260905032904 25 0 0.0 0.0 0.00 0.00 0.00 88 1013.0
20260905032805 25 0 0.0 0.0 0.00 0.00 0.00 88 1013.0
20260905032704 25 0 0.0 0.0 0.00 0.00 0.00 88 1013.0
20260905032605 25 0 0.0 0.0 0.00 0.00 0.00 88 1013.0
20260905032504 25 0 0.0 0.0 0.00 0.00 0.00 88 1013.0
20260905032404 25 0 0.0 0.0 0.00 0.00 0.00 88 1013.0
20260905032306 25 0 0.0 0.0 0.00 0.00 0.00 88 1013.0
20260905032205 25 0 0.0 0.0 0.00 0.00 0.00 88 1013.0
20260905032105 25 0 0.0 0.0 0.00 0.00 0.00 88 1013.0
20260905032004 25 0 0.0 0.0 0.00 0.00 0.00 88 1013.0
20260905031905 25 0 0.0 0.0 0.00 0.00 0.00 88 1013.0
20260905031804 25 0 0.0 0.0 0.00 0.00 0.00 88 1013.0
20260905031725 25 0 0.0 0.0 0.00 0.00 0.00 88 1013.0
20260905031603 25 0 0.0 0.0 0.00 0.00 0.00 88 1013.0
20260905031505 25 0 0.0 0.0 0.00 0.00 0.00 88 1013.0
20260905031404 25 0 0.0 0.0 0.00 0.00 0.00 88 1013.1
20260905031305 25 0 0.0 0.0 0.00 0.00 0.00 88 1013.1
20260905031205 25 0 0.0 0.0 0.00 0.00 0.00 88 1013.1
20260905031105 25 0 0.0 0.0 0.00 0.00 0.00 88 1013.1
20260905031004 25 0 0.0 0.0 0.00 0.00 0.00 88 1013.1
20260905030904 25 0 0.0 0.0 0.00 0.00 0.00 87 1013.1
20260905030804 25 0 0.0 0.0 0.00 0.00 0.00 87 1013.1
20260905030725 25 0 0.0 0.0 0.00 0.00 0.00 87 1013.1
20260905030605 25 0 0.0 0.0 0.00 0.00 0.00 87 1013.1
20260905030505 26 0 0.0 0.0 0.00 0.00 0.00 87 1013.1
20260905030405 26 0 0.0 0.0 0.00 0.00 0.00 88 1013.1
20260905030304 26 0 0.0 0.0 0.00 0.00 0.00 88 1013.1
20260905030204 26 0 0.0 0.0 0.00 0.00 0.00 88 1013.1
20260905030104 26 0 0.0 0.0 0.00 0.00 0.00 88 1013.1
20260905030004 26 0 0.0 0.0 0.00 0.00 0.00 87 1013.1
20260905025905 26 0 0.0 0.0 0.00 0.00 0.00 87 1013.0
20260905025805 26 0 0.0 0.0 0.00 0.00 0.00 87 1013.0
20260905025704 26 0 0.0 0.0 0.00 0.00 0.00 87 1013.0
20260905025625 26 0 0.0 0.0 0.00 0.00 0.00 87 1013.0
20260905025504 26 0 0.0 0.0 0.00 0.00 0.00 87 1013.0
20260905025404 26 0 0.0 0.0 0.00 0.00 0.00 87 1013.0
20260905025306 26 0 0.0 0.0 0.00 0.00 0.00 87 1013.0
20260905025204 26 0 0.0 0.0 0.00 0.00 0.00 86 1013.0
20260905025104 26 0 0.0 0.0 0.00 0.00 0.00 86 1013.0
20260905025004 26 0 0.0 0.0 0.00 0.00 0.00 86 1013.0
20260905024904 26 0 0.0 0.0 0.00 0.00 0.00 86 1013.0
20260905024804 26 0 0.0 0.0 0.00 0.00 0.00 86 1013.0
20260905024704 26 0 0.0 0.0 0.00 0.00 0.00 86 1013.0
20260905024604 26 0 0.0 0.0 0.00 0.00 0.00 86 1013.0
20260905024504 26 0 0.0 0.0 0.00 0.00 0.00 86 1013.0
20260905024405 26 0 0.0 0.0 0.00 0.00 0.00 86 1012.7
20260905024305 26 0 0.0 0.0 0.00 0.00 0.00 86 1012.7
20260905024204 26 0 0.0 0.0 0.00 0.00 0.00 86 1012.7
20260905024105 26 0 0.0 0.0 0.00 0.00 0.00 86 1012.7
20260905024004 26 0 0.0 0.0 0.00 0.00 0.00 86 1012.7
20260905023926 26 0 0.0 0.0 0.00 0.00 0.00 86 1012.7
20260905023805 26 0 0.0 0.0 0.00 0.00 0.00 86 1012.7
20260905023704 26 0 0.0 0.0 0.00 0.00 0.00 86 1012.7
20260905023625 26 0 0.0 0.0 0.00 0.00 0.00 86 1012.7
20260905023504 26 0 0.0 0.0 0.00 0.00 0.00 86 1012.7
20260905023405 26 0 0.0 0.0 0.00 0.00 0.00 86 1012.7
20260905023325 26 0 0.0 0.0 0.00 0.00 0.00 86 1012.7
20260905023205 26 0 0.0 0.0 0.00 0.00 0.00 86 1012.7
20260905023126 26 0 0.0 0.0 0.00 0.00 0.00 86 1012.7
20260905023005 26 0 0.0 0.0 0.00 0.00 0.00 86 1012.7
20260905022904 26 0 0.0 0.0 0.00 0.00 0.00 85 1012.7
20260905022826 26 0 0.0 0.0 0.00 0.00 0.00 85 1012.7
20260905022704 26 0 0.0 0.0 0.00 0.00 0.00 85 1012.7
20260905022626 26 0 0.0 0.0 0.00 0.00 0.00 85 1012.7
20260905022504 26 0 0.0 0.0 0.00 0.00 0.00 85 1012.7
20260905022405 26 0 0.0 0.0 0.00 0.00 0.00 85 1012.7
20260905022325 26 0 0.0 0.0 0.00 0.00 0.00 85 1012.7
20260905022225 26 0 0.0 0.0 0.00 0.00 0.00 85 1012.7
20260905022105 26 0 0.0 0.0 0.00 0.00 0.00 85 1012.7
20260905022025 26 0 0.0 0.0 0.00 0.00 0.00 85 1012.7
20260905021905 26 0 0.0 0.0 0.00 0.00 0.00 85 1012.7
20260905021804 26 0 0.0 0.0 0.00 0.00 0.00 85 1012.7
20260905021704 26 0 0.0 0.0 0.00 0.00 0.00 84 1012.7
20260905021604 26 0 0.0 0.0 0.00 0.00 0.00 84 1012.7
20260905021505 26 0 0.0 0.0 0.00 0.00 0.00 84 1012.7
20260905021404 26 0 0.0 0.0 0.00 0.00 0.00 84 1012.6
20260905021325 26 0 0.0 0.0 0.00 0.00 0.00 84 1012.6
20260905021205 26 0 0.0 0.0 0.00 0.00 0.00 84 1012.6
20260905021105 26 0 0.0 0.0 0.00 0.00 0.00 84 1012.6
20260905021004 26 0 0.0 0.0 0.00 0.00 0.00 83 1012.6
20260905020905 26 0 0.0 0.0 0.00 0.00 0.00 83 1012.6
20260905020804 26 0 0.0 0.0 0.00 0.00 0.00 83 1012.6
20260905020704 26 0 0.0 0.0 0.00 0.00 0.00 83 1012.6
20260905020605 26 0 0.0 0.0 0.00 0.00 0.00 83 1012.6
20260905020504 26 0 0.0 0.0 0.00 0.00 0.00 83 1012.6
20260905020405 26 0 0.0 0.0 0.00 0.00 0.00 83 1012.6
20260905020305 26 0 0.0 0.0 0.00 0.00 0.00 83 1012.6
20260905020205 26 0 0.0 0.0 0.00 0.00 0.00 83 1012.6
20260905020104 27 0 0.0 0.0 0.00 0.00 0.00 82 1012.6
20260905020005 27 0 0.0 0.0 0.00 0.00 0.00 82 1012.6
20260905015904 27 0 0.0 0.0 0.00 0.00 0.00 82 1012.6
20260905015826 27 0 0.0 0.0 0.00 0.00 0.00 82 1012.6
20260905015725 27 0 0.0 0.0 0.00 0.00 0.00 83 1012.6
20260905015604 27 0 0.0 0.0 0.00 0.00 0.00 82 1012.6
20260905015504 27 0 0.0 0.0 0.00 0.00 0.00 82 1012.6
20260905015405 27 0 0.0 0.0 0.00 0.00 0.00 82 1012.6
20260905015306 27 0 0.0 0.0 0.00 0.00 0.00 82 1012.6
20260905015205 27 0 0.0 0.0 0.00 0.00 0.00 82 1012.6
20260905015104 27 0 0.0 0.0 0.00 0.00 0.00 82 1012.6
20260905015005 27 0 0.0 0.0 0.00 0.00 0.00 82 1012.6
20260905014904 27 0 0.0 0.0 0.00 0.00 0.00 82 1012.6
20260905014804 27 0 0.0 0.0 0.00 0.00 0.00 82 1012.6
20260905014704 27 0 0.0 0.0 0.00 0.00 0.00 82 1012.6
20260905014626 27 0 0.0 0.0 0.00 0.00 0.00 82 1012.6
20260905014525 27 0 0.0 0.0 0.00 0.00 0.00 82 1012.6
20260905014404 27 0 0.0 0.0 0.00 0.00 0.00 81 1012.5
20260905014305 27 0 0.0 0.0 0.00 0.00 0.00 82 1012.5
20260905014204 27 0 0.0 0.0 0.00 0.00 0.00 81 1012.5
20260905014125 27 0 0.0 0.0 0.00 0.00 0.00 82 1012.5
20260905014026 27 0 0.0 0.0 0.00 0.00 0.00 82 1012.5
20260905013905 27 0 0.0 0.0 0.00 0.00 0.00 82 1012.5
20260905013805 27 0 0.0 0.0 0.00 0.00 0.00 81 1012.5
20260905013704 27 0 0.0 0.0 0.00 0.00 0.00 81 1012.5
20260905013604 27 0 0.0 0.0 0.00 0.00 0.00 81 1012.5
20260905013505 27 0 0.0 0.0 0.00 0.00 0.00 81 1012.5
20260905013404 27 0 0.0 0.0 0.00 0.00 0.00 81 1012.5
20260905013305 27 0 0.0 0.0 0.00 0.00 0.00 81 1012.5
20260905013226 27 0 0.0 0.0 0.00 0.00 0.00 81 1012.5
20260905013104 27 0 0.0 0.0 0.00 0.00 0.00 81 1012.5
20260905013004 27 0 0.0 0.0 0.00 0.00 0.00 81 1012.5
20260905012904 27 0 0.0 0.0 0.00 0.00 0.00 81 1012.4
20260905012805 27 0 0.0 0.0 0.00 0.00 0.00 81 1012.4
20260905012704 27 0 0.0 0.0 0.00 0.00 0.00 81 1012.4
20260905012604 27 0 0.0 0.0 0.00 0.00 0.00 80 1012.4
20260905012506 27 0 0.0 0.0 0.00 0.00 0.00 80 1012.4
20260905012404 27 0 0.0 0.0 0.00 0.00 0.00 80 1012.4
20260905012306 27 0 0.0 0.0 0.00 0.00 0.00 80 1012.4
20260905012204 27 0 0.0 0.0 0.00 0.00 0.00 80 1012.4
20260905012105 27 0 0.0 0.0 0.00 0.00 0.00 80 1012.4
20260905012004 27 0 0.0 0.0 0.00 0.00 0.00 80 1012.4
20260905011903 27 0 0.0 0.0 0.00 0.00 0.00 80 1012.4
20260905011804 27 0 0.0 0.0 0.00 0.00 0.00 80 1012.4
20260905011705 27 0 0.0 0.0 0.00 0.00 0.00 80 1012.4
20260905011606 27 0 0.0 0.0 0.00 0.00 0.00 80 1012.4
20260905011525 27 0 0.0 0.0 0.00 0.00 0.00 80 1012.4
20260905011404 27 0 0.0 0.0 0.00 0.00 0.00 79 1012.1
20260905011304 27 0 0.0 0.0 0.00 0.00 0.00 79 1012.1
20260905011205 28 0 0.0 0.0 0.00 0.00 0.00 79 1012.1
20260905011104 28 0 0.0 0.0 0.00 0.00 0.00 79 1012.1
20260905011004 28 0 0.0 0.0 0.00 0.00 0.00 79 1012.1
20260905010904 28 0 0.0 0.0 0.00 0.00 0.00 79 1012.1
20260905010805 28 0 0.0 0.0 0.00 0.00 0.00 78 1012.1
20260905010704 28 0 0.0 0.0 0.00 0.00 0.00 78 1012.1
20260905010604 28 0 0.0 0.0 0.00 0.00 0.00 78 1012.1
20260905010504 28 0 0.0 0.0 0.00 0.00 0.00 77 1012.1
20260905010406 28 0 0.0 0.0 0.00 0.00 0.00 77 1012.1
20260905010304 28 0 0.0 0.0 0.00 0.00 0.00 77 1012.1
20260905010204 28 0 0.0 0.0 0.00 0.00 0.00 77 1012.1
20260905010105 28 0 0.0 0.0 0.00 0.00 0.00 77 1012.1
20260905010004 28 0 0.0 0.0 0.00 0.00 0.00 76 1012.1
20260905005904 28 0 0.0 0.0 0.00 0.00 0.00 76 1012.0
20260905005804 28 0 0.0 0.0 0.00 0.00 0.00 75 1012.0
20260905005726 28 0 0.0 0.0 0.00 0.00 0.00 75 1012.0
20260905005625 28 0 0.0 0.0 0.00 0.00 0.00 75 1012.0
20260905005525 28 0 0.0 0.0 0.00 0.00 0.00 75 1012.0
20260905005404 28 0 0.0 0.0 0.00 0.00 0.00 75 1012.0
20260905005306 28 0 0.0 0.0 0.00 0.00 0.00 75 1012.0
20260905005204 28 0 0.0 0.0 0.00 0.00 0.00 74 1012.0
20260905005125 28 0 0.0 0.0 0.00 0.00 0.00 74 1012.0
20260905005004 28 0 0.0 0.0 0.00 0.00 0.00 74 1012.0
20260905004905 28 0 0.0 0.0 0.00 0.00 0.00 74 1012.0
20260905004804 28 0 0.0 0.0 0.00 0.00 0.00 74 1012.0
20260905004704 28 0 0.0 0.0 0.00 0.00 0.00 73 1012.0
20260905004606 28 0 0.0 0.0 0.00 0.00 0.00 73 1012.0
20260905004504 28 0 0.0 0.0 0.00 0.00 0.00 74 1012.0
20260905004403 29 0 0.0 0.0 0.00 0.00 0.00 74 1012.0
20260905004326 29 0 0.0 0.0 0.00 0.00 0.00 73 1012.0
20260905004225 29 0 0.0 0.0 0.00 0.00 0.00 73 1012.0
20260905004103 29 0 0.0 0.0 0.00 0.00 0.00 73 1012.0
20260905004004 29 0 0.0 0.0 0.00 0.00 0.00 73 1012.0
20260905003904 29 0 0.0 0.0 0.00 0.00 0.00 73 1012.0
20260905003804 29 0 0.0 0.0 0.00 0.00 0.00 73 1012.0
20260905003705 29 0 0.0 0.0 0.00 0.00 0.00 73 1012.0
20260905003604 29 0 0.0 0.0 0.00 0.00 0.00 73 1012.0
20260905003504 30 0 0.0 0.0 0.00 0.00 0.00 73 1012.0
20260905003404 30 0 0.0 0.0 0.00 0.00 0.00 72 1012.0
20260905003304 30 0 0.0 0.0 0.00 0.00 0.00 72 1012.0
20260905003203 30 0 0.0 0.0 0.00 0.00 0.00 72 1012.0
20260905003104 30 0 0.0 0.0 0.00 0.00 0.00 72 1012.0
20260905003005 30 0 0.0 0.0 0.00 0.00 0.00 72 1012.0
20260905002905 30 0 0.0 0.0 0.00 0.00 0.00 72 1011.6
20260905002826 30 0 0.0 0.0 0.00 0.00 0.00 72 1011.6
20260905002704 30 0 0.0 0.0 0.00 0.00 0.00 71 1011.6
20260905002625 30 0 0.0 0.0 0.00 0.00 0.00 71 1011.6
20260905002505 30 0 0.0 0.0 0.00 0.00 0.00 70 1011.6
20260905002405 30 0 0.0 0.0 0.00 0.00 0.00 70 1011.6
20260905002326 30 0 0.0 0.0 0.00 0.00 0.00 70 1011.6
20260905002205 30 0 0.0 0.0 0.00 0.00 0.00 71 1011.6
20260905002126 30 0 0.0 0.0 0.00 0.00 0.00 71 1011.6
20260905002004 30 0 0.0 0.0 0.00 0.00 0.00 71 1011.6
20260905001904 30 0 0.0 0.0 0.00 0.00 0.00 70 1011.6
20260905001804 31 0 0.0 0.0 0.00 0.00 0.00 69 1011.6
20260905001704 31 0 0.0 0.0 0.00 0.00 0.00 69 1011.6
20260905001625 31 0 0.0 0.0 0.00 0.00 0.00 69 1011.6
20260905001505 31 0 0.0 0.0 0.00 0.00 0.00 69 1011.6
20260905001405 31 0 0.0 0.0 0.00 0.00 0.00 68 1011.9
20260905001305 31 0 0.0 0.0 0.00 0.00 0.00 68 1011.9
20260905001225 31 0 0.0 0.0 0.00 0.00 0.00 68 1011.9
20260905001104 31 0 0.0 0.0 0.00 0.00 0.00 67 1011.9
20260905001004 31 0 0.0 0.0 0.00 0.00 0.00 67 1011.9
20260905000925 31 0 0.0 0.0 0.00 0.00 0.00 66 1011.9
20260905000804 31 0 0.0 0.0 0.00 0.00 0.00 66 1011.9
20260905000704 31 0 0.0 0.0 0.00 0.00 0.00 65 1011.9
20260905000604 32 0 0.0 0.0 0.00 0.00 0.00 64 1011.9
20260905000504 32 0 0.0 0.0 0.00 0.00 0.00 62 1011.9
20260905000425 32 0 0.0 0.0 0.00 0.00 0.00 62 1011.9
20260905000304 32 0 0.0 0.0 0.00 0.00 0.00 62 1011.9
20260905000204 32 0 0.0 0.0 0.00 0.00 0.00 61 1011.9
20260905000104 32 0 0.0 0.0 0.00 0.00 0.00 62 1011.9
20260905000004 32 0 0.0 0.0 0.00 0.00 0.00 61 1011.9
20260904235904 32 0 0.0 0.0 0.00 0.00 0.00 61 1011.9
20260904235804 32 0 0.0 0.0 0.00 0.00 0.00 61 1011.9
20260904235704 33 0 0.0 0.0 0.00 0.00 0.00 61 1011.9
20260904235625 33 0 0.0 0.0 0.00 0.00 0.00 61 1011.9
20260904235505 33 0 0.0 0.0 0.00 0.00 0.00 60 1011.9
20260904235404 33 0 0.0 0.0 0.00 0.00 0.00 59 1011.9
20260904235306 33 0 0.0 0.0 0.00 0.00 0.00 58 1011.9
20260904235204 33 0 0.0 0.0 0.00 0.00 0.00 58 1011.9
20260904235105 33 0 0.0 0.0 0.00 0.00 0.00 59 1011.9
20260904235004 34 0 0.0 0.0 0.00 0.00 0.00 59 1011.9
20260904234905 34 0 0.0 0.0 0.00 0.00 0.00 58 1011.9
20260904234804 34 0 0.0 0.0 0.00 0.00 0.00 58 1011.9
20260904234704 34 0 0.0 0.0 0.00 0.00 0.00 56 1011.9
20260904234604 35 0 0.0 0.0 0.00 0.00 0.00 56 1011.9
20260904234526 35 0 0.0 0.0 0.00 0.00 0.00 56 1011.9
20260904234405 35 0 0.0 0.0 0.00 0.00 0.00 56 1012.0
20260904234326 35 0 0.0 0.0 0.00 0.00 0.00 56 1012.0
20260904234225 35 0 0.0 0.0 0.00 0.00 0.00 55 1012.0
20260904234104 35 0 0.0 0.0 0.00 0.00 0.00 55 1012.0
20260904234025 35 0 0.0 0.0 0.00 0.00 0.00 55 1012.0
20260904233905 35 0 0.0 0.0 0.00 0.00 0.00 55 1012.0
20260904233804 36 0 0.0 0.0 0.00 0.00 0.00 56 1012.0
20260904233705 36 0 0.0 0.0 0.00 0.00 0.00 56 1012.0
20260904233604 36 0 0.0 0.0 0.00 0.00 0.00 54 1012.0
20260904233525 36 0 0.0 0.0 0.00 0.00 0.00 54 1012.0
20260904233405 36 0 0.0 0.0 0.00 0.00 0.00 53 1012.0
20260904233325 36 0 0.0 0.0 0.00 0.00 0.00 52 1012.0
20260904233204 36 0 0.0 0.0 0.00 0.00 0.00 51 1012.0
20260904233104 36 0 0.0 0.0 0.00 0.00 0.00 51 1012.0
20260904233005 36 0 0.0 0.0 0.00 0.00 0.00 51 1012.0
20260904232904 36 0 0.0 0.0 0.00 0.00 0.00 50 1012.0
20260904232804 36 0 0.0 0.0 0.00 0.00 0.00 50 1012.0
20260904232704 36 0 0.0 0.0 0.00 0.00 0.00 50 1012.0
20260904232626 36 0 0.0 0.0 0.00 0.00 0.00 48 1012.0
20260904232504 36 0 0.0 0.0 0.00 0.00 0.00 49 1012.0
20260904232405 36 0 0.0 0.0 0.00 0.00 0.00 50 1012.0
20260904232306 36 0 0.0 0.0 0.00 0.00 0.00 51 1012.0
20260904232204 36 0 0.0 0.0 0.00 0.00 0.00 50 1012.0
20260904232103 36 0 0.0 0.0 0.00 0.00 0.00 50 1012.0
20260904232004 36 0 0.0 0.0 0.00 0.00 0.00 51 1012.0
20260904231904 36 0 0.0 0.0 0.00 0.00 0.00 51 1012.0
20260904231804 36 0 0.0 0.0 0.00 0.00 0.00 50 1012.0
20260904231705 36 0 0.0 0.0 0.00 0.00 0.00 50 1012.0
20260904231605 36 0 0.0 0.0 0.00 0.00 0.00 51 1012.0
20260904231504 36 0 0.0 0.0 0.00 0.00 0.00 51 1012.0
20260904231404 36 0 0.0 0.0 0.00 0.00 0.00 51 1012.0
20260904231304 36 0 0.0 0.0 0.00 0.00 0.00 51 1012.0
20260904231203 36 0 0.0 0.0 0.00 0.00 0.00 51 1012.0
20260904231125 36 0 0.0 0.0 0.00 0.00 0.00 51 1012.0
20260904231005 35 0 0.0 0.0 0.00 0.00 0.00 53 1012.0
20260904230904 35 0 0.0 0.0 0.00 0.00 0.00 53 1012.0
20260904230803 35 0 0.0 0.0 0.00 0.00 0.00 53 1012.0
20260904230705 35 0 0.0 0.0 0.00 0.00 0.00 52 1012.0
20260904230625 35 0 0.0 0.0 0.00 0.00 0.00 52 1012.0
20260904230504 35 0 0.0 0.0 0.00 0.00 0.00 51 1012.0
20260904230425 35 0 0.0 0.0 0.00 0.00 0.00 51 1012.0
20260904230304 35 0 0.0 0.0 0.00 0.00 0.00 50 1012.0
20260904230205 35 0 0.0 0.0 0.00 0.00 0.00 50 1012.0
20260904230104 35 0 0.0 0.0 0.00 0.00 0.00 50 1012.0
20260904230005 35 0 0.0 0.0 0.00 0.00 0.00 50 1012.0
20260904225904 35 0 0.0 0.0 0.00 0.00 0.00 50 1012.0
20260904225825 35 0 0.0 0.0 0.00 0.00 0.00 50 1012.0
20260904225704 36 0 0.0 0.0 0.00 0.00 0.00 50 1012.0
20260904225605 36 0 0.0 0.0 0.00 0.00 0.00 50 1012.0
20260904225525 36 318 0.0 1.6 0.00 0.00 0.00 49 1012.0
20260904225425 36 299 0.0 1.6 0.00 0.00 0.00 48 1012.0
20260904225305 36 279 0.0 4.8 0.00 0.00 0.00 48 1012.0
20260904225205 36 278 0.0 4.8 0.00 0.00 0.00 47 1012.0
20260904225125 36 278 0.0 4.8 0.00 0.00 0.00 47 1012.0
20260904225004 36 278 0.0 4.8 0.00 0.00 0.00 47 1012.0
20260904224905 36 279 0.0 4.8 0.00 0.00 0.00 46 1012.0
20260904224804 36 280 0.0 4.8 0.00 0.00 0.00 47 1012.0